ECMWFFLT1_250_rhum_252.txt.gz
RH
18 19 19 19 20 19 19 18 18 17 16 15 15 14 14 14 13 13 13 12 13 12 12 12 11 11 11 11 11 10 10 9 9 9 8 8 8 7 7 6 6 6 7 8 10 10 10 10 9 9 8 9 10 9 9 8 8 9 11 12 14 15 15
21 21 21 20 19 18 16 15 14 13 12 11 11 10 10 10 9 9 9 8 9 8 8 8 8 8 8 7 8 7 7 6 6 5 5 5 5 5 5 5 4 4 5 6 7 7 7 7 7 7 7 7 9 9 8 7 7 7 8 10 12 14 15
22 20 18 16 15 13 12 11 10 9 9 8 8 8 7 7 7 7 7 6 6 6 6 6 6 6 6 6 6 5 5 5 4 4 4 4 4 4 4 4 4 4 4 5 6 6 6 6 5 6 6 6 6 7 7 6 6 5 6 6 8 10 12
18 15 14 12 11 11 10 10 9 8 8 7 6 6 6 6 5 5 5 5 5 5 4 4 4 4 4 4 4 4 4 4 3 3 3 3 4 4 4 4 4 4 4 4 5 5 6 6 5 6 6 6 6 6 6 6 6 5 5 5 5 6 7
15 14 13 12 12 11 9 8 7 6 5 5 4 4 4 4 3 3 3 3 3 3 3 3 3 3 3 3 3 3 3 2 2 2 2 3 3 3 3 3 3 3 3 3 4 4 4 4 5 5 5 5 6 6 7 7 6 6 6 6 6 5 5
16 14 13 11 9 8 6 5 5 4 4 3 3 3 3 3 3 2 2 3 2 2 2 2 2 2 2 2 2 2 2 2 2 2 2 2 2 2 2 2 2 2 2 2 3 3 3 3 3 4 4 4 4 4 5 6 6 6 6 6 6 6 6
14 11 9 7 6 5 4 4 4 3 3 3 3 3 3 2 3 2 2 2 2 2 2 2 2 2 2 2 2 2 2 2 2 2 2 2 2 2 2 2 2 2 2 2 2 2 2 2 2 3 3 3 3 3 4 4 4 5 5 5 5 5 6
9 7 6 5 4 4 4 3 3 3 3 3 3 3 3 2 2 2 2 2 2 2 2 2 2 2 2 2 2 2 2 2 2 2 2 2 2 2 2 2 2 2 2 2 2 2 2 2 2 2 2 2 2 3 3 3 3 4 4 4 4 4 5
6 5 5 4 4 4 3 3 3 3 3 3 3 3 2 2 3 2 2 2 2 2 2 2 2 2 2 2 2 2 2 2 2 2 2 2 2 2 2 2 2 2 2 2 2 2 2 2 2 2 2 2 2 2 2 2 3 3 3 3 3 4 4
5 5 5 4 4 4 3 3 3 3 3 3 3 3 2 3 2 2 2 2 2 2 2 2 2 2 2 2 2 2 2 2 2 2 2 2 2 2 2 2 2 2 2 2 2 2 2 2 2 2 2 2 2 2 2 2 2 2 2 3 3 3 3
5 5 4 4 4 4 4 4 3 3 3 3 3 2 2 3 2 2 2 2 2 2 2 2 2 2 2 2 2 2 2 2 2 2 2 2 2 2 2 2 2 2 2 2 2 2 2 2 2 2 2 2 2 2 2 2 2 2 2 2 2 2 2
5 5 5 4 4 4 4 4 3 3 3 3 3 2 2 2 2 2 2 2 2 2 2 2 2 2 2 2 2 2 2 2 2 2 2 2 2 2 2 2 2 2 2 2 2 2 2 2 2 2 2 2 2 2 2 2 2 2 2 2 2 3 2
5 5 5 5 4 4 4 4 3 3 3 3 3 2 2 2 2 2 2 2 2 2 2 2 2 2 2 2 2 2 2 2 2 2 2 2 2 2 2 2 2 2 2 2 2 2 2 2 2 2 2 2 2 2 2 2 2 2 2 2 2 3 3
6 5 5 5 5 4 4 4 3 3 3 3 3 3 2 3 2 2 2 2 2 2 2 2 2 2 2 2 2 2 2 2 2 2 2 2 2 2 2 2 2 1 2 2 2 2 2 2 2 2 2 2 2 2 2 2 3 2 2 2 2 2 3
6 6 5 5 5 4 4 4 4 4 4 3 3 3 3 3 3 2 2 2 2 2 2 2 2 2 2 2 2 2 2 2 2 2 2 2 2 2 2 2 2 1 2 2 2 2 2 2 2 2 2 2 2 2 2 2 2 2 2 2 2 2 2
6 6 5 5 5 5 4 4 4 4 4 4 3 3 3 3 3 3 2 2 2 2 2 3 2 2 2 2 2 2 2 2 2 2 2 2 2 2 2 2 2 2 2 2 2 2 2 2 2 2 2 2 2 2 2 3 2 2 2 2 2 3 2
6 6 6 5 5 5 5 5 4 4 4 4 4 3 3 3 3 3 3 3 3 3 2 3 3 2 3 2 2 2 2 2 2 2 2 2 2 2 2 2 2 2 2 2 2 2 2 2 2 2 2 2 2 2 2 3 3 2 2 2 2 2 2
6 6 6 6 6 5 5 5 4 4 4 4 4 4 4 4 3 3 3 3 3 3 3 3 3 3 3 3 2 3 2 2 3 2 2 2 2 2 2 2 2 2 2 2 2 2 2 2 2 2 2 2 2 2 2 2 3 2 2 3 3 3 3
7 7 6 6 6 6 6 5 5 5 5 5 5 4 4 4 4 3 3 3 3 3 3 3 3 3 3 3 3 3 3 3 3 3 3 3 2 2 2 2 2 2 2 2 2 2 2 2 2 2 2 2 2 2 2 2 2 2 3 3 3 3 3
7 7 7 7 6 6 6 6 6 6 6 6 5 5 5 5 4 4 4 4 4 4 4 4 4 3 3 3 3 3 3 3 3 3 3 3 3 2 2 2 2 2 2 2 2 2 2 2 2 2 2 2 2 2 2 2 2 2 2 3 3 3 3
7 7 7 7 7 7 7 7 7 7 7 7 7 6 6 6 5 5 5 5 4 4 4 4 4 4 4 3 3 3 3 3 3 3 3 3 3 3 2 3 3 2 3 2 2 2 2 2 2 2 2 2 2 2 2 2 2 2 2 2 3 3 3
8 8 8 8 8 9 8 8 8 8 8 8 8 8 7 7 6 6 5 5 5 5 5 5 5 4 4 4 4 4 4 4 3 3 4 3 3 3 3 3 3 2 3 3 2 2 2 2 2 2 2 2 2 2 2 2 2 2 2 2 3 2 3
10 10 10 9 9 10 10 10 10 10 10 9 9 8 8 8 7 7 6 6 6 5 6 6 5 5 5 4 4 4 4 4 4 4 4 4 3 3 3 3 3 3 3 3 3 3 2 2 3 3 3 3 2 2 2 2 2 2 2 3 2 2 3
12 12 12 12 11 12 12 13 12 12 12 11 11 10 9 8 8 8 7 7 7 6 6 6 5 6 5 5 5 5 4 4 4 4 4 4 4 4 4 3 3 3 3 3 3 3 3 3 3 3 3 3 3 3 2 2 2 2 2 3 2 3 3
15 15 15 15 14 14 14 14 14 14 14 13 13 12 12 11 10 9 8 8 8 8 8 7 6 6 6 5 5 5 5 5 5 5 4 4 4 4 4 4 3 3 3 3 3 3 3 3 3 3 3 3 3 3 3 3 3 2 2 3 2 2 3
17 17 16 16 15 15 14 15 15 15 15 15 15 14 14 15 14 13 11 10 9 9 9 9 9 8 7 6 5 5 5 5 5 5 5 5 5 5 4 4 4 4 3 3 3 3 3 3 3 3 3 3 3 3 3 3 3 3 2 2 2 2 3
16 16 16 16 16 15 14 14 15 16 15 15 15 14 14 15 15 15 15 13 12 11 11 11 11 10 9 9 8 7 7 6 5 5 5 5 5 5 5 5 4 4 4 3 3 3 3 3 3 3 3 3 3 3 3 3 3 3 3 3 2 2 2
19 19 19 18 17 18 18 16 16 17 17 17 17 16 14 14 15 15 15 14 13 12 12 11 11 10 10 10 9 8 8 7 7 7 6 6 6 5 5 5 5 5 4 4 4 3 3 3 3 3 3 3 3 3 3 4 4 3 3 3 3 3 2
26 26 27 26 24 23 24 25 23 22 21 21 21 20 18 17 16 16 17 16 15 14 13 12 11 10 10 10 10 9 8 8 8 7 7 7 7 6 6 5 5 5 5 4 4 4 3 3 3 3 3 3 3 3 3 3 4 4 4 3 3 3 3
37 35 34 34 32 29 28 30 32 31 29 27 26 25 23 21 19 19 19 19 18 16 15 14 13 11 10 10 10 9 9 8 8 7 7 7 7 7 7 6 6 5 5 5 5 4 4 4 3 3 3 3 3 3 3 3 3 3 4 4 4 3 3
45 43 41 42 43 40 36 34 35 35 35 34 32 30 28 25 22 21 20 20 19 18 17 15 15 13 12 11 10 9 9 9 8 8 7 7 7 7 7 7 7 6 5 5 5 4 4 4 4 4 4 3 3 3 3 3 3 3 3 4 4 4 4
44 46 47 48 49 47 42 38 36 36 37 37 36 35 33 29 25 23 22 21 20 20 18 17 15 14 13 12 11 10 9 9 9 8 8 7 7 6 7 7 7 7 6 5 5 4 4 4 4 4 4 4 4 4 3 3 4 3 3 4 3 3 4
38 42 45 45 44 42 40 37 36 36 36 35 35 35 33 31 27 23 21 21 20 20 19 18 16 15 13 12 11 10 10 9 9 9 8 8 7 6 6 7 7 7 7 7 6 5 5 4 4 4 4 4 4 4 4 4 4 4 4 4 3 4 4
32 35 38 41 42 42 39 36 34 33 32 31 31 31 31 30 28 25 22 20 19 19 19 19 18 16 15 13 11 10 10 9 9 9 9 8 8 7 6 6 6 7 7 7 6 6 5 5 4 4 4 4 4 4 4 4 4 4 4 4 4 4 4
42 39 38 40 42 42 40 35 32 31 30 29 28 29 30 30 30 29 26 23 21 19 19 19 18 17 16 15 13 11 10 9 9 9 9 9 8 8 7 6 6 6 7 7 7 6 6 5 5 4 4 4 4 4 4 4 4 4 4 4 4 4 4
54 49 43 38 37 37 37 34 32 31 31 30 29 29 30 31 31 31 30 27 25 22 21 19 18 17 16 15 14 12 11 9 9 8 8 9 9 8 8 7 6 6 6 6 7 7 6 6 6 5 5 4 4 4 4 4 5 5 5 5 5 4 4

ECMWFFLT1_250_rhum_258.txt.gz
RH
48 47 46 45 44 44 43 42 42 41 41 40 38 37 35 34 32 29 27 25 23 22 21 20 20 19 18 18 17 15 13 12 10 8 7 6 5 5 4 4 3 3 3 3 3 3 2 3 3 2 3 2 2 2 2 2 2 2 3 3 3 3 3
53 52 50 49 48 47 46 45 44 42 41 39 37 35 33 31 30 28 27 25 24 23 22 21 20 18 16 14 13 11 10 8 7 6 5 5 4 4 3 3 3 2 3 3 3 3 2 2 2 2 2 2 2 2 2 2 2 2 2 2 2 2 2
54 52 51 50 49 47 46 44 42 40 39 37 35 35 33 32 31 28 27 25 23 22 21 19 17 15 13 11 10 9 8 7 5 4 4 3 3 3 3 3 3 2 3 3 3 3 2 2 2 2 2 2 2 2 2 2 2 2 2 2 2 2 2
54 52 51 50 47 45 43 41 40 38 38 37 36 35 34 31 29 27 25 23 21 20 18 16 14 12 11 9 8 7 5 5 4 4 4 3 3 3 3 3 3 2 3 3 3 3 2 2 2 2 2 2 2 2 2 2 2 2 2 2 2 2 2
54 52 50 47 44 42 41 39 39 39 38 37 35 33 31 29 27 24 22 20 18 16 15 13 12 10 8 7 5 5 4 4 4 4 4 4 3 3 3 3 3 3 3 3 3 3 2 2 2 2 2 2 2 2 2 2 2 2 2 2 2 2 2
50 48 46 44 42 40 40 39 39 38 37 35 32 30 28 26 23 21 18 17 15 14 12 10 8 6 5 5 5 5 5 4 4 4 4 4 4 3 3 3 3 3 3 3 3 2 2 2 2 2 2 2 2 2 2 2 2 2 2 2 2 2 2
47 45 44 42 41 40 39 39 38 36 34 31 28 26 23 21 20 18 16 14 12 10 8 6 6 5 5 5 5 5 5 5 5 4 4 4 4 3 3 3 3 3 3 2 2 2 2 2 2 2 2 2 2 2 2 2 2 2 2 2 2 2 2
46 45 43 42 41 40 38 37 34 32 29 26 23 22 20 19 17 14 12 9 8 7 6 6 6 6 5 5 5 5 5 5 4 4 4 3 3 3 3 3 3 3 3 3 2 2 2 2 2 2 2 2 2 2 2 2 2 2 2 2 2 2 2
45 43 42 41 39 36 34 31 28 26 24 23 21 20 18 15 12 9 8 7 7 6 6 6 6 6 6 5 5 5 4 4 4 4 4 4 4 3 3 3 3 3 3 3 3 2 2 2 2 2 2 2 2 2 2 2 2 2 2 2 2 2 2
43 42 40 37 34 30 28 26 24 24 22 21 18 15 13 10 8 7 7 7 7 6 6 6 6 6 5 5 5 5 5 4 4 4 4 4 4 4 4 4 3 3 3 3 3 3 3 3 2 3 2 2 2 2 2 2 2 2 2 2 2 2 2
40 38 36 33 29 26 25 24 23 22 19 16 12 10 9 8 8 7 7 7 7 7 7 6 6 6 6 6 6 5 5 5 4 4 4 4 4 4 4 4 4 4 3 3 3 3 3 3 3 3 2 2 3 2 2 2 2 2 2 2 2 2 2
37 35 31 29 27 26 24 22 19 16 13 10 9 8 9 8 8 8 7 7 7 7 6 6 6 7 6 6 6 6 6 5 5 5 4 4 4 4 4 4 4 4 4 4 4 3 3 3 3 3 3 2 3 3 2 3 2 2 2 2 2 2 2
34 31 29 27 27 24 21 16 13 11 10 9 9 9 9 9 8 8 7 7 7 7 7 7 7 8 7 7 7 6 7 6 6 6 5 4 4 4 4 4 4 4 4 4 4 4 4 3 3 3 3 3 3 3 2 3 2 2 3 2 2 2 2
31 30 28 26 23 18 14 11 10 10 10 10 10 9 9 8 8 7 6 7 7 7 7 7 7 8 8 7 7 7 7 8 8 7 6 5 5 4 4 4 4 5 5 5 5 5 4 4 3 3 3 3 3 3 3 3 3 2 3 3 2 2 2
31 28 23 19 15 12 11 10 10 10 10 10 10 9 9 8 7 7 7 8 8 8 7 7 7 8 8 8 8 7 8 9 9 9 8 7 6 5 5 5 4 5 5 5 5 5 5 5 4 4 4 3 3 3 3 3 3 2 3 3 2 3 2
25 20 16 13 12 11 11 10 10 10 10 10 9 9 9 9 9 9 9 9 8 8 7 7 7 7 8 8 8 8 8 9 10 10 9 9 8 7 6 5 5 5 5 5 5 6 5 5 5 5 4 4 3 3 3 3 3 3 3 3 3 3 2
18 14 12 12 11 11 12 11 10 10 9 9 10 10 11 11 10 10 10 9 9 8 7 7 7 7 8 8 8 8 9 9 10 11 11 11 10 10 8 7 6 5 5 5 5 6 5 5 6 6 5 5 4 4 4 4 3 3 3 3 3 3 3
14 13 12 12 12 12 12 11 9 9 9 10 11 12 12 12 11 11 11 10 10 8 7 7 7 7 8 8 9 9 10 11 11 13 13 13 12 13 11 9 8 7 6 5 5 5 5 5 6 6 5 5 5 4 4 4 4 4 3 3 3 2 3
13 13 13 13 13 11 11 10 10 10 11 12 13 12 12 12 12 12 12 12 11 10 10 10 11 11 10 10 11 12 13 13 13 14 15 15 14 15 14 13 12 10 8 7 6 5 5 5 5 6 6 6 5 5 5 4 4 4 4 3 3 3 2
14 14 13 12 11 11 11 12 12 12 13 13 13 11 11 12 12 13 14 15 15 16 17 19 20 19 17 15 16 17 17 16 15 15 16 16 16 17 17 16 15 13 10 9 7 6 5 5 5 6 6 6 6 6 5 5 4 4 4 4 3 3 3
14 14 13 11 11 12 12 13 14 14 13 13 13 12 13 14 15 15 17 19 22 23 25 28 29 27 25 22 21 20 18 16 15 14 14 15 15 16 17 17 17 16 14 12 10 8 6 5 5 5 6 6 6 6 6 5 5 4 4 4 4 3 3
14 13 13 13 13 14 14 15 14 14 14 14 14 15 15 17 18 19 21 24 26 28 30 31 30 28 26 23 21 19 17 15 14 13 12 12 13 13 14 15 16 16 15 14 13 11 8 7 6 6 6 6 6 7 6 5 5 5 4 4 4 4 3
14 15 16 16 16 16 16 15 14 13 15 15 15 15 16 18 20 21 23 25 27 29 30 30 29 27 26 24 21 19 17 16 14 13 12 11 11 11 12 13 14 14 15 14 14 13 10 9 7 6 6 6 6 7 7 6 5 5 5 5 4 4 4
16 18 19 19 18 17 16 15 14 14 14 15 15 16 17 18 20 21 22 24 25 27 29 29 29 30 29 28 26 24 22 20 18 16 14 13 11 10 11 11 12 12 13 13 13 12 11 9 8 7 7 7 7 7 7 6 5 5 5 5 4 4 4
18 20 21 21 20 19 18 16 15 15 15 16 18 20 20 21 22 23 24 26 28 31 33 35 36 36 35 33 31 29 27 24 22 20 17 15 13 11 11 11 11 12 12 12 12 11 11 9 8 8 7 7 7 7 7 6 6 5 5 5 5 4 4
21 21 22 22 21 23 23 20 17 17 18 20 23 26 27 28 29 30 31 33 37 40 42 42 42 40 38 35 33 31 28 26 24 22 19 17 14 13 11 11 11 11 12 12 12 11 10 9 8 7 7 7 7 7 7 7 6 5 5 5 5 5 4
21 22 25 26 26 27 28 25 22 22 24 27 31 36 39 40 42 44 45 46 47 48 47 45 43 41 38 35 33 30 27 24 23 21 19 17 16 14 13 12 12 12 12 12 12 11 10 9 8 7 7 7 7 7 7 7 6 6 5 5 5 5 4
22 24 29 32 31 32 33 31 29 31 34 36 40 46 51 54 56 56 56 54 52 49 47 44 42 40 38 35 33 30 28 25 23 20 19 18 16 15 14 13 13 13 12 12 12 11 10 9 8 7 6 7 7 6 6 7 6 6 5 5 5 5 5
27 30 35 37 35 34 37 39 41 45 47 50 53 56 59 60 59 57 55 52 49 47 44 41 39 36 34 32 31 29 27 26 24 21 19 18 17 15 15 14 14 13 13 12 11 10 10 9 8 8 7 6 6 6 6 6 6 6 6 5 5 5 5
33 36 38 40 39 37 38 43 49 55 59 62 62 61 60 57 54 52 50 47 45 42 39 36 34 32 30 28 27 26 25 23 22 20 19 18 17 16 15 14 14 13 12 11 11 10 10 9 9 8 7 6 6 6 6 6 6 6 6 5 5 5 5
36 38 39 41 45 47 48 50 56 60 62 62 62 60 57 54 51 49 46 43 41 38 34 32 30 28 26 25 24 23 22 21 19 18 17 16 15 15 14 13 13 12 11 11 10 10 9 9 8 8 7 6 6 6 5 5 6 6 6 5 5 5 5
35 37 39 41 46 51 55 59 62 63 62 60 59 57 55 52 48 44 42 39 37 34 31 29 27 25 24 23 21 20 19 19 18 16 15 15 14 13 13 12 12 11 11 10 10 9 9 8 8 7 7 6 6 5 5 5 5 5 6 6 5 5 5
35 39 42 45 48 52 56 59 62 63 62 60 57 54 50 47 43 40 38 36 34 32 30 27 25 24 22 21 20 19 18 17 16 15 14 14 13 12 12 11 11 11 10 10 9 9 8 8 7 7 6 6 6 6 5 5 6 6 6 6 6 5 6
32 38 45 50 54 57 59 62 64 64 62 57 52 48 46 43 41 39 37 34 32 30 28 25 23 22 21 19 18 17 16 16 15 14 13 13 12 12 11 11 10 10 10 9 9 8 8 7 7 6 6 6 6 6 6 6 6 6 6 6 6 6 6
43 46 51 57 63 68 70 72 71 66 59 53 49 48 47 45 42 39 36 33 30 28 26 24 22 21 20 19 17 16 16 15 14 13 13 12 11 11 11 11 11 10 10 9 8 8 7 7 7 7 7 6 6 6 6 6 6 6 6 6 6 6 6
60 62 66 70 76 82 82 78 72 65 60 56 53 50 47 43 39 36 33 31 28 26 24 23 21 20 19 18 17 16 15 14 14 13 12 12 11 11 11 11 11 10 10 8 8 7 7 7 7 7 7 7 6 6 6 6 6 6 6 6 6 6 6

ECMWFFLT1_250_rhum_264.txt.gz
RH
53 53 53 53 53 52 50 49 48 49 50 51 51 51 50 48 47 44 42 40 38 37 36 37 37 36 34 33 32 30 27 24 22 21 20 20 20 20 21 20 20 20 20 19 17 16 14 12 12 10 10 9 9 9 8 8 8 7 7 6 5 5 4
63 63 63 62 61 60 58 57 57 57 57 57 56 55 54 51 48 46 44 43 42 41 41 41 40 38 35 32 30 27 25 23 23 23 24 24 24 23 22 19 17 15 14 13 12 11 10 10 9 9 8 8 8 8 7 7 6 6 5 5 4 4 3
70 69 69 68 66 64 63 62 61 61 60 59 58 56 54 52 50 49 48 47 46 45 44 42 39 35 32 29 28 26 25 25 25 24 23 21 19 17 15 13 12 10 10 10 10 10 9 9 9 9 8 8 7 6 6 5 5 4 4 4 3 3 3
68 68 67 66 64 62 61 61 60 58 57 56 56 55 54 54 53 53 52 50 48 45 42 39 36 33 31 29 27 25 23 21 19 18 17 16 14 14 13 12 11 10 9 9 9 10 10 9 9 8 7 6 5 4 4 4 3 3 3 3 3 3 3
64 63 62 61 60 59 59 58 57 56 56 56 56 57 57 57 57 56 54 51 47 44 40 37 34 30 27 23 21 19 17 16 15 15 15 15 14 14 13 12 11 10 10 9 9 9 8 7 6 6 5 4 4 4 4 3 3 3 4 4 4 3 3
67 66 64 62 61 60 61 60 59 58 58 59 60 61 62 61 60 57 54 50 45 40 35 30 25 22 19 17 17 17 16 16 16 15 15 15 14 14 14 13 11 10 9 8 7 6 5 5 5 5 4 4 4 3 3 4 3 4 4 4 4 4 3
79 76 72 69 67 66 66 65 64 64 64 66 67 67 65 62 57 52 47 42 35 29 24 20 18 18 18 18 18 18 17 16 16 16 15 15 14 12 11 10 9 8 7 6 6 5 5 5 5 5 4 4 4 4 3 4 3 4 4 4 4 4 4
89 85 80 77 75 74 73 72 69 67 67 66 65 62 58 53 47 41 35 30 25 21 19 19 20 20 20 20 19 19 18 17 16 15 13 12 10 9 8 8 7 7 7 6 6 6 5 5 5 4 4 4 4 4 3 3 4 4 4 4 4 4 4
89 85 81 78 76 73 70 67 63 60 58 56 54 51 48 44 39 34 29 26 23 22 22 22 23 23 22 21 20 18 17 14 12 11 10 9 9 8 8 8 7 7 7 6 6 6 6 5 5 4 4 4 4 4 4 4 4 4 4 4 4 4 4
74 71 70 69 67 65 61 58 54 52 50 49 48 47 45 42 38 32 29 26 25 25 25 26 25 24 21 19 16 13 11 9 8 8 8 8 8 8 8 7 8 7 6 6 6 6 5 5 5 5 4 4 4 4 4 4 4 4 4 4 5 5 5
65 64 63 63 61 59 56 54 51 49 48 47 46 45 44 41 36 32 30 29 29 28 27 25 22 19 15 13 10 9 8 7 8 8 8 8 8 8 7 7 7 6 6 6 6 6 6 5 5 6 5 5 5 4 4 4 4 4 4 4 5 5 5
64 62 60 59 58 57 56 53 51 50 49 47 45 42 40 37 35 33 33 32 30 27 23 20 16 13 11 10 9 8 8 8 9 9 9 9 9 8 7 6 6 6 5 5 6 6 6 6 6 6 6 5 5 5 5 5 5 5 5 4 5 5 6
61 60 59 58 59 58 56 53 51 49 47 44 41 39 37 36 35 33 32 29 25 21 18 15 13 11 10 10 9 9 10 10 11 11 11 10 9 8 8 7 6 6 6 6 6 6 7 7 6 6 6 6 5 5 5 5 6 6 5 5 5 6 6
62 60 59 59 59 58 55 52 49 47 45 42 39 38 37 35 33 29 26 23 19 16 14 13 12 11 11 11 11 11 12 12 12 12 11 10 9 9 8 8 7 7 7 6 6 6 6 6 6 6 6 6 5 6 6 6 7 6 6 6 7 7 7
64 62 60 59 58 57 54 50 47 45 42 39 37 36 34 31 27 24 21 18 15 13 12 11 11 12 12 13 13 13 12 12 12 12 11 10 10 10 10 10 9 8 8 7 6 6 5 5 5 5 5 5 5 5 5 6 7 7 6 7 8 8 8
64 62 61 59 57 55 52 48 45 42 39 36 34 32 30 26 23 19 17 15 13 12 12 12 13 13 14 13 13 13 12 12 12 12 11 11 10 10 10 10 10 9 8 7 7 6 6 5 5 5 5 5 5 5 5 5 6 6 6 6 7 8 8
63 61 60 58 55 52 49 46 41 38 35 32 30 28 25 21 18 16 15 14 14 14 14 14 14 14 13 13 13 13 13 12 12 11 11 11 11 11 11 11 11 11 10 10 9 9 8 7 6 6 6 5 5 5 5 5 7 7 6 6 6 7 8
62 60 57 54 51 48 45 42 37 34 31 29 26 22 20 17 16 15 15 16 17 16 16 15 14 13 14 14 14 14 13 12 12 11 11 11 12 13 13 13 14 14 14 13 12 11 10 9 7 7 6 5 4 4 4 4 5 6 6 6 6 7 8
60 58 54 50 47 44 41 39 35 31 27 23 21 18 17 17 16 17 17 18 18 17 16 16 15 15 15 15 15 14 13 12 12 12 12 13 13 14 15 15 15 15 14 14 13 12 11 10 9 8 7 7 6 5 5 4 3 4 4 5 6 7 8
55 53 50 48 45 42 39 36 31 26 22 19 18 17 17 18 17 18 19 19 19 18 18 18 18 18 18 17 16 15 14 13 13 14 14 15 15 16 16 16 17 16 15 15 14 14 12 10 9 9 8 8 8 7 7 6 4 4 3 4 4 5 6
52 52 50 47 44 40 35 30 25 21 19 18 18 18 18 18 18 18 19 20 20 20 20 21 21 20 20 19 18 16 16 16 17 17 17 17 17 17 17 17 18 18 17 17 16 15 13 11 10 9 9 8 8 8 8 7 6 5 4 4 4 4 5
53 53 50 44 38 33 28 24 21 19 18 18 19 18 18 18 18 18 20 22 23 22 22 23 23 23 21 20 19 18 19 21 21 21 20 20 19 19 18 18 19 19 19 19 17 16 14 12 11 10 9 9 9 8 8 7 7 6 5 4 4 4 5
52 48 42 36 30 27 24 21 20 19 19 19 18 18 18 19 20 20 22 24 25 24 24 24 24 22 21 20 20 22 23 24 23 22 22 22 22 21 21 20 19 19 18 18 16 15 14 12 11 10 10 10 9 9 8 8 7 7 6 5 4 5 5
43 37 33 29 27 24 22 20 19 19 19 19 18 19 20 21 21 21 22 24 25 25 24 24 22 21 20 21 23 25 25 24 24 24 25 25 26 25 23 20 19 18 17 16 15 14 12 11 10 10 10 10 9 9 9 8 8 7 6 5 5 5 5
33 30 29 27 25 23 21 19 19 19 19 19 20 22 23 23 23 24 25 25 25 24 23 22 22 22 23 25 27 27 27 28 29 30 30 30 29 27 23 20 19 18 17 16 15 13 12 11 10 10 10 9 9 9 9 8 8 7 6 5 5 5 5
29 28 27 26 24 23 20 18 18 19 20 22 23 25 26 27 27 28 28 27 26 25 24 23 24 26 28 30 30 31 33 35 36 35 34 32 30 27 24 21 20 19 18 17 15 14 12 11 10 10 9 9 9 9 8 8 8 8 7 6 5 5 5
28 26 26 26 24 22 20 19 19 21 23 25 26 27 28 30 30 30 29 28 28 27 26 26 28 31 34 36 38 40 41 41 39 37 35 34 31 28 26 23 21 20 19 17 15 14 12 11 10 10 9 9 9 8 8 8 8 8 7 6 5 5 5
26 26 26 26 23 21 21 20 21 25 27 29 30 30 31 31 31 31 30 30 30 30 30 32 36 40 44 47 49 48 46 43 40 38 36 34 32 29 26 23 20 19 18 16 15 13 12 11 10 10 9 9 9 9 8 8 8 8 7 6 6 5 5
26 26 26 25 23 21 22 23 25 28 31 33 33 32 32 31 31 32 33 34 35 37 40 44 49 52 56 58 56 52 48 44 41 38 36 34 32 29 25 22 19 18 18 16 14 13 12 11 10 10 10 10 10 9 9 8 8 7 7 7 6 6 5
26 26 26 25 23 22 24 28 32 33 35 36 35 33 33 33 35 39 41 41 43 47 52 57 60 61 62 60 56 51 47 44 40 38 36 33 31 28 24 21 19 18 18 17 15 13 12 11 10 10 11 10 10 10 9 9 8 7 7 7 6 6 5
27 26 26 25 24 25 27 32 38 40 40 40 38 36 36 37 40 44 46 47 52 57 60 63 64 63 60 57 53 50 46 43 39 37 34 33 30 27 24 21 19 19 18 17 15 13 12 11 10 11 11 11 11 10 10 9 8 7 7 7 7 6 5
27 27 26 25 27 29 32 36 41 44 45 44 43 43 42 42 43 46 50 54 60 63 64 64 63 61 58 54 51 48 44 40 38 35 33 32 30 27 24 21 20 19 18 17 16 14 12 11 11 11 11 12 11 11 10 9 8 7 7 6 6 6 5
27 28 28 27 30 35 41 44 45 46 47 49 51 52 52 49 48 50 55 61 64 65 64 64 62 59 56 52 49 45 41 38 36 34 33 31 29 27 24 22 20 20 19 18 16 14 13 11 11 11 12 13 13 12 10 9 8 7 6 6 6 6 5
29 30 31 32 36 43 48 50 50 51 55 59 62 63 62 59 56 56 60 64 65 65 64 63 60 57 53 50 46 42 39 36 35 34 33 31 29 27 25 23 21 21 21 19 17 15 13 12 11 11 12 13 13 12 9 8 7 6 6 6 6 6 5
30 33 36 40 45 50 52 51 52 55 61 67 68 67 65 62 61 61 63 64 65 65 64 61 58 55 52 48 44 40 38 37 36 35 33 32 30 28 26 24 23 22 22 21 18 16 14 12 11 11 12 13 13 11 9 8 7 6 6 6 6 6 6
30 33 40 47 51 52 50 48 51 55 59 61 61 61 61 62 64 66 68 68 68 67 64 59 56 53 50 46 43 40 39 38 36 34 33 32 31 29 27 25 25 24 23 22 20 17 14 13 12 12 12 12 11 10 9 7 6 6 6 7 7 7 6

ECMWFFLT1_250_rhum_270.txt.gz
RH
54 54 53 52 52 51 50 49 48 48 47 46 46 46 46 45 44 44 43 42 42 41 41 40 40 39 38 38 38 38 38 38 38 39 38 38 37 35 33 30 28 27 26 24 22 19 17 15 13 13 12 11 11 11 11 11 11 11 11 10 10 9 9
52 52 52 52 52 52 51 51 50 49 48 48 49 48 49 48 48 48 46 46 45 44 44 44 43 43 42 42 42 41 40 39 38 36 34 31 28 25 23 20 18 17 16 16 16 15 14 13 13 14 13 13 13 13 14 14 14 14 13 11 10 10 10
52 52 52 52 52 51 51 51 50 50 50 50 51 52 52 52 51 51 50 48 47 45 44 43 41 39 38 36 35 33 31 29 27 25 24 22 20 18 17 16 16 16 16 18 19 19 18 17 17 17 16 15 15 16 16 16 16 15 14 13 12 11 11
49 49 48 47 47 46 46 46 45 44 44 45 46 46 46 46 44 43 42 40 38 36 34 33 31 30 28 27 27 26 24 23 23 22 22 21 20 20 20 20 20 20 20 22 22 22 20 19 19 19 18 18 17 18 18 17 17 16 15 14 12 11 10
44 44 44 44 44 44 43 43 43 42 42 42 43 45 45 44 42 40 39 37 35 34 32 31 30 29 28 27 27 27 25 24 24 24 25 26 26 26 26 25 24 23 22 22 22 22 20 19 19 20 20 20 19 19 18 17 16 14 12 11 10 9 8
50 50 51 50 50 50 49 49 50 50 50 52 53 54 53 52 50 48 46 44 42 40 38 37 36 34 32 31 30 30 29 28 29 30 31 31 31 30 28 27 25 24 23 22 22 22 21 21 21 21 21 20 18 16 15 14 13 12 10 9 8 8 7
61 61 61 61 61 61 62 62 63 63 65 66 66 65 64 63 62 59 56 53 50 47 45 42 41 39 37 36 35 34 33 33 33 34 34 33 31 30 28 26 25 24 23 23 23 22 22 21 20 19 18 17 15 13 12 11 11 11 11 10 9 9 8
69 71 72 74 74 74 75 75 74 74 74 74 72 72 71 70 69 65 61 58 54 50 47 45 43 41 39 38 36 35 35 36 36 36 36 34 31 29 27 26 25 25 24 24 23 21 20 19 17 16 15 13 12 11 11 11 11 11 11 11 10 10 8
75 77 78 78 78 77 77 75 72 71 71 72 73 72 72 71 67 63 59 55 51 48 46 44 43 41 40 38 38 38 38 39 38 38 36 34 31 29 28 27 25 25 23 22 21 19 17 16 15 13 13 12 11 11 11 11 11 11 11 10 10 9 8
74 75 75 75 74 72 70 69 68 69 69 70 70 69 68 66 63 59 57 54 53 51 49 48 46 45 43 41 40 40 40 39 37 35 33 32 30 28 27 25 24 22 21 19 18 17 15 14 13 12 12 11 11 12 11 11 11 10 10 9 9 9 8
72 72 72 72 71 69 69 68 67 67 66 65 64 64 65 66 65 63 61 59 58 56 53 51 48 46 43 40 39 37 36 34 32 30 30 28 27 25 23 22 21 20 19 17 16 15 13 13 13 12 12 11 11 11 11 10 10 9 9 9 9 9 8
72 72 71 71 71 70 70 69 66 66 66 66 66 67 70 72 71 68 64 61 58 54 51 49 45 42 39 36 35 33 31 30 29 28 28 26 24 22 19 19 18 17 17 16 15 15 14 13 13 13 12 11 11 11 10 10 10 9 9 9 9 9 9
75 76 75 75 75 75 74 73 71 72 72 72 71 71 70 69 66 62 59 56 53 50 47 45 41 39 37 34 33 31 29 29 29 28 26 24 22 20 18 17 16 16 16 15 15 15 14 13 12 12 12 11 10 10 10 11 11 11 11 11 11 10 9
83 82 81 80 80 81 80 78 77 76 74 71 68 65 62 60 57 56 55 53 51 49 46 43 40 37 37 35 32 30 29 29 28 27 25 23 21 19 18 17 17 16 16 15 14 14 13 13 12 12 12 11 11 11 11 12 12 12 11 11 10 9 8
90 87 85 84 85 85 83 79 74 71 67 63 60 58 56 56 56 56 56 55 51 48 45 42 39 37 36 34 32 30 29 28 27 26 25 23 21 19 18 17 16 16 14 14 13 13 13 13 12 12 11 11 11 11 11 11 11 11 11 11 11 10 9
92 90 88 87 86 84 80 74 67 63 61 58 57 56 56 58 59 58 58 55 51 48 44 40 37 34 33 33 32 31 30 28 28 27 25 23 21 19 17 16 15 15 14 14 13 13 13 13 12 12 11 11 11 12 12 13 12 12 12 12 11 11 10
93 91 89 86 82 78 74 69 63 59 58 57 57 58 59 61 62 61 59 55 50 46 41 36 32 31 32 34 34 33 30 29 27 25 22 20 19 17 16 15 15 15 14 15 15 14 14 14 13 13 13 13 13 13 13 13 13 12 11 10 10 10 11
94 91 86 81 77 74 71 67 61 58 58 58 59 60 63 64 64 62 58 52 46 41 35 32 31 32 34 36 34 31 28 26 23 21 19 19 18 17 16 16 16 16 16 17 17 17 16 16 15 15 15 14 14 13 13 13 12 12 11 11 10 10 11
92 87 82 78 75 72 69 65 61 60 60 61 61 64 67 67 66 62 54 47 42 38 34 32 32 33 34 33 30 27 24 22 20 19 19 18 18 18 18 17 18 18 19 20 20 19 19 18 18 17 17 16 15 15 15 14 14 13 12 12 12 11 11
87 84 81 77 74 72 69 66 65 64 63 63 66 69 70 69 65 56 48 43 40 38 36 34 34 33 31 29 26 23 21 19 19 19 19 19 19 19 19 20 20 21 23 24 24 23 23 22 21 20 20 19 19 18 18 18 16 15 13 13 13 12 12
84 84 82 79 76 74 70 68 68 67 65 67 71 73 73 70 61 50 44 43 42 39 37 35 33 30 27 25 23 21 20 19 19 19 20 20 20 20 21 23 25 27 28 28 28 27 26 25 26 25 24 24 22 21 21 20 18 15 14 14 14 13 12
86 87 86 83 79 74 71 69 67 67 68 71 74 76 75 68 56 46 43 44 43 39 35 33 30 27 25 24 23 21 21 20 20 21 21 22 22 23 24 27 30 32 33 33 32 32 31 30 30 29 28 26 24 23 22 20 19 16 15 15 14 13 12
89 88 87 84 79 75 72 69 67 69 73 75 78 82 76 62 50 45 44 42 40 36 32 30 28 26 25 24 23 22 22 22 22 23 23 23 24 26 29 32 34 36 37 37 37 36 34 32 31 30 29 27 26 24 23 22 20 18 16 16 15 14 12
89 87 85 83 80 76 73 70 71 73 75 79 84 82 68 52 46 45 41 37 35 32 30 28 27 26 26 25 25 24 24 24 24 25 25 26 29 32 36 38 39 39 39 39 38 37 35 33 31 31 30 30 29 27 26 24 22 19 17 17 17 16 13
89 87 86 83 81 78 75 73 75 77 78 83 84 72 54 45 44 42 36 32 30 29 29 28 27 27 27 27 26 26 26 26 26 27 29 31 34 39 41 42 42 42 40 39 38 37 35 34 33 34 34 34 33 30 27 25 22 20 19 18 18 17 15
90 88 85 81 80 79 78 78 80 82 85 85 75 56 44 43 43 38 33 30 29 29 29 28 28 29 29 29 29 29 29 29 29 30 33 36 40 44 46 46 45 44 41 40 39 38 38 38 39 40 40 39 36 31 27 25 23 21 20 20 19 17 16
89 86 81 80 80 80 81 84 88 90 90 82 62 46 41 42 40 35 33 31 30 31 30 30 30 31 32 32 33 33 32 33 34 35 38 41 45 48 48 47 46 44 42 43 43 43 44 45 46 46 44 41 36 32 28 25 23 22 21 20 19 18 16
88 84 82 82 82 81 85 92 96 96 90 74 52 41 41 40 36 34 33 32 32 32 31 31 32 33 34 36 37 37 36 37 39 41 45 49 51 51 48 46 44 44 45 47 49 51 51 51 50 48 45 41 37 33 29 26 24 22 21 20 18 18 17
90 87 83 81 81 85 92 100 103 97 83 62 45 38 39 38 35 35 34 33 33 32 32 32 33 34 36 38 39 40 40 41 45 49 53 55 53 49 45 43 43 45 48 51 53 56 56 54 51 48 44 40 37 34 30 27 24 22 22 20 19 18 17
91 85 80 80 85 91 97 101 102 93 73 52 40 36 37 36 35 36 35 34 33 33 33 33 34 35 38 40 42 43 44 46 50 54 55 54 50 46 45 45 45 47 51 55 57 58 57 53 49 46 42 39 36 34 30 27 24 23 22 21 20 19 19
86 81 79 83 91 96 96 96 92 80 61 45 37 35 35 35 36 37 36 34 34 34 34 34 36 38 39 42 45 46 47 50 53 54 54 52 49 48 48 49 50 51 55 59 60 59 56 52 47 43 40 37 35 33 30 27 25 24 24 22 21 20 20
81 80 83 86 89 91 91 88 79 65 50 39 35 34 35 35 36 37 37 35 35 35 35 36 40 42 42 44 46 46 48 51 53 54 54 55 55 55 54 53 55 57 59 61 61 58 55 50 44 41 38 35 34 32 29 28 27 26 25 24 22 22 22
81 81 82 82 80 78 78 74 66 54 42 35 33 35 36 37 36 36 36 36 37 37 38 40 44 46 46 47 48 48 50 54 55 56 59 61 64 66 63 59 59 61 62 62 61 58 53 47 42 39 36 34 33 31 29 28 28 28 28 26 24 23 23
76 74 75 73 66 61 60 59 54 46 37 33 33 36 37 38 37 36 36 37 38 39 42 45 47 49 49 49 51 53 55 58 59 61 64 68 72 75 73 68 64 64 63 62 61 56 50 44 41 38 36 34 33 31 29 29 30 30 30 28 26 24 23
68 62 59 55 50 48 49 50 46 40 34 33 35 37 38 38 38 37 37 38 39 42 46 49 51 51 52 53 56 58 60 62 65 67 71 77 81 82 79 74 70 67 65 63 59 53 47 43 42 39 36 34 32 31 31 32 33 33 32 30 27 25 23
68 55 45 39 37 39 42 43 41 37 33 34 37 40 39 39 38 38 39 40 41 44 49 53 55 56 57 59 61 63 65 69 74 78 82 86 88 86 82 78 73 69 65 60 55 50 47 45 43 40 37 35 34 33 34 34 35 36 34 30 27 25 23

ECMWFFLT1_250_rhum_276.txt.gz
RH
34 33 32 32 33 35 36 35 35 34 34 35 36 36 37 37 38 38 38 38 38 38 39 40 39 39 39 39 40 41 40 41 41 41 41 41 40 39 38 38 39 42 48 52 52 48 46 47 48 46 43 41 41 39 38 37 35 33 29 25 21 18 17
38 37 35 34 35 37 38 38 36 35 35 34 35 36 38 39 41 42 42 41 41 40 40 41 40 40 40 41 42 42 43 44 44 45 45 44 44 44 45 46 48 50 54 59 60 56 51 51 52 50 46 42 42 41 41 40 37 33 28 24 21 20 19
42 41 40 38 38 38 40 40 40 39 38 36 35 36 37 39 41 42 42 42 42 42 42 43 43 43 44 45 46 47 48 49 49 49 51 51 53 55 55 54 53 53 54 57 59 57 52 50 51 50 47 44 43 43 44 43 39 34 29 26 23 22 21
46 46 46 45 43 43 43 45 46 46 45 43 43 43 43 45 46 45 45 45 45 44 44 45 45 46 47 49 52 53 53 55 56 57 58 60 60 59 59 57 55 53 53 54 55 55 52 50 51 52 51 48 46 46 46 43 39 35 31 28 25 23 22
50 50 52 52 50 49 48 50 53 53 53 52 53 54 54 55 55 55 56 55 53 52 51 51 51 52 54 56 58 60 60 61 62 62 62 62 61 60 60 59 57 55 54 54 55 56 55 54 54 55 54 50 47 46 44 41 36 33 30 27 24 21 20
55 56 56 56 54 53 51 51 54 57 58 59 59 61 63 65 65 66 67 66 63 61 60 59 59 58 59 61 63 64 64 64 64 64 63 63 63 62 62 61 59 58 57 57 57 58 57 55 54 53 50 46 43 41 39 35 32 28 25 22 20 17 16
61 61 62 60 57 56 55 54 54 55 57 60 64 67 68 69 71 73 74 74 72 69 67 66 66 65 65 66 66 67 68 68 68 67 67 66 65 65 64 63 63 62 60 59 58 56 54 52 50 47 44 41 38 35 32 29 27 25 21 19 17 15 14
67 67 68 66 63 61 60 59 57 56 56 59 63 67 70 72 74 76 78 79 77 75 74 72 72 72 72 71 72 72 73 72 72 71 71 69 68 68 67 66 65 63 60 57 54 52 50 48 47 44 39 35 32 29 26 25 23 23 20 17 15 13 12
77 76 74 72 70 68 66 64 62 61 60 60 60 62 65 69 73 78 80 82 80 77 75 74 74 74 74 74 74 74 75 74 73 74 74 73 72 71 69 66 63 60 57 54 51 50 49 48 47 42 36 31 27 25 24 23 21 20 18 16 15 12 11
86 85 81 78 76 73 72 70 68 67 65 64 64 64 66 68 71 76 81 84 85 82 79 77 76 76 75 75 75 75 75 75 75 75 75 75 73 71 68 65 62 59 55 52 52 52 53 51 47 41 34 28 24 23 23 22 20 18 16 15 15 14 13
96 92 86 82 79 77 76 75 73 71 70 68 69 70 71 73 74 76 80 82 83 82 81 80 80 80 80 79 79 78 78 78 79 79 78 77 75 73 69 65 62 58 55 53 54 55 55 52 47 41 33 26 23 23 23 22 20 18 16 15 16 16 15
103 98 90 85 84 82 81 79 76 75 73 72 73 74 74 76 78 79 80 79 78 78 77 77 78 80 81 81 80 80 80 81 82 82 81 79 76 73 68 64 60 57 54 53 55 57 57 52 44 37 31 25 23 23 23 22 20 18 17 16 17 17 16
106 101 94 90 91 90 87 84 80 79 79 79 78 77 77 79 82 83 82 80 78 77 75 74 74 77 79 79 78 77 78 79 79 79 78 76 74 71 68 65 62 58 55 54 56 58 59 53 43 35 30 25 23 23 23 22 20 18 17 16 16 17 16
104 101 97 95 98 99 93 87 84 84 85 85 83 81 82 83 86 88 87 86 84 81 79 78 78 80 80 79 77 75 75 75 76 77 77 76 75 74 71 69 65 59 54 55 57 59 58 54 43 33 29 26 24 23 22 21 20 18 17 16 16 17 16
104 101 99 99 101 102 98 92 89 89 88 88 88 87 87 88 89 91 92 92 91 88 86 86 86 86 85 82 80 77 75 75 76 77 79 79 78 77 75 72 65 56 53 56 58 58 56 51 41 32 28 27 24 23 21 20 20 19 17 17 18 17 16
104 101 100 101 102 104 105 100 95 93 90 88 89 90 90 90 90 91 93 95 94 92 93 93 92 91 89 88 86 83 80 80 80 81 82 81 81 79 77 73 63 54 55 58 57 56 52 45 37 31 29 27 23 21 20 19 20 19 18 19 19 18 17
103 101 101 101 100 104 110 108 102 97 92 89 91 93 94 93 93 94 95 95 95 95 97 97 95 93 92 92 90 88 87 86 84 84 84 83 82 81 78 73 63 58 60 59 55 53 49 41 34 31 29 26 22 20 20 20 21 20 19 19 19 19 19
102 101 101 102 101 102 106 108 104 97 92 94 96 97 96 95 96 97 97 95 95 97 97 96 92 91 92 93 93 93 93 92 88 85 83 82 81 80 78 73 66 62 62 59 54 51 45 38 34 31 27 24 21 20 20 21 22 21 20 20 20 19 20
102 102 101 102 103 101 101 104 104 97 94 98 101 98 97 97 98 98 97 96 96 96 94 90 88 87 88 90 93 96 97 94 88 83 80 79 78 77 75 71 66 64 63 61 57 51 43 37 33 29 25 22 21 21 21 21 22 22 21 21 21 20 20
101 102 102 101 102 101 100 101 102 98 97 101 103 100 98 99 99 98 98 98 98 96 92 88 87 86 86 86 89 93 93 88 82 78 77 76 74 72 71 68 67 69 70 66 60 51 43 37 32 27 23 22 21 21 22 23 23 22 21 21 22 22 21
102 102 102 101 102 103 103 102 101 100 102 105 105 100 98 99 98 99 101 101 100 97 93 91 88 86 84 83 84 85 83 79 75 72 72 72 71 70 69 69 71 75 74 68 59 51 43 35 28 24 22 22 22 22 23 24 24 23 22 22 23 23 23
102 102 102 102 102 102 102 101 101 104 107 107 105 101 98 97 99 101 102 100 98 96 94 92 89 85 83 82 81 80 76 72 70 69 69 69 69 69 69 70 72 75 73 65 55 47 40 32 26 23 22 22 22 23 24 25 24 23 22 22 23 23 24
103 101 100 102 103 104 104 103 103 106 107 105 101 99 96 98 101 101 97 93 92 91 90 87 85 84 82 80 78 73 68 65 65 65 65 65 64 65 65 66 67 68 66 59 50 41 34 29 25 23 22 22 22 23 25 25 24 23 23 23 23 23 23
102 102 100 101 104 106 106 105 104 105 104 99 95 94 95 98 99 94 88 87 87 86 84 84 85 85 83 81 78 71 66 65 64 63 62 62 61 60 60 60 59 57 55 51 43 35 30 27 25 23 22 22 23 25 26 25 24 24 24 23 23 23 24
103 104 102 100 102 103 103 103 102 101 97 91 89 91 91 91 90 85 81 81 82 81 80 82 85 86 86 83 78 72 68 67 66 62 59 57 56 54 52 52 50 46 43 41 36 31 28 27 25 23 22 23 24 26 26 25 24 25 26 25 24 25 27
103 103 101 100 101 102 102 101 99 95 90 85 84 85 83 81 80 78 75 74 74 73 73 75 79 80 80 78 74 69 66 64 62 57 53 50 47 45 44 43 41 37 36 35 32 29 29 28 25 23 23 24 26 27 26 25 26 28 30 27 26 27 30
100 100 100 100 101 102 102 101 97 90 83 79 79 77 76 76 77 75 73 72 71 70 71 73 76 76 76 73 68 64 61 59 56 52 47 44 40 39 38 37 34 31 31 31 30 29 28 27 24 23 25 26 27 28 27 26 28 31 33 31 28 30 32
102 101 100 100 101 101 100 99 93 84 77 75 74 72 73 76 76 73 72 70 68 68 70 73 75 75 74 70 65 61 59 55 51 48 44 40 37 36 35 32 30 28 29 29 28 28 27 25 24 26 27 28 29 29 28 28 30 33 34 33 31 32 35
102 103 102 104 106 105 101 97 91 80 73 73 73 72 74 77 74 70 68 65 63 65 69 72 73 72 70 66 61 57 54 49 45 43 41 38 36 35 33 30 28 27 27 27 28 27 26 25 26 28 30 30 31 31 30 31 33 34 34 33 33 34 36
105 107 106 106 105 99 93 90 86 77 71 71 71 72 74 75 71 67 64 61 61 64 68 71 72 70 66 61 55 51 47 42 39 38 37 35 34 33 32 29 27 26 26 26 27 26 26 27 30 31 32 32 32 33 34 35 36 35 34 34 35 37 38
102 100 97 93 91 86 83 81 80 76 72 71 71 72 72 69 64 62 61 60 61 65 69 71 70 66 61 55 48 44 40 36 35 35 33 32 32 30 29 28 27 26 26 26 26 25 27 30 32 34 34 33 34 36 39 39 38 37 36 37 39 40 40
85 83 81 80 80 81 81 79 77 76 75 74 72 70 65 59 56 57 59 60 62 67 71 71 67 61 54 47 42 39 36 34 34 33 31 30 30 28 27 27 27 26 26 26 26 27 29 32 34 35 35 35 37 40 43 43 42 41 41 42 43 41 40
77 78 78 78 78 79 80 79 77 76 77 77 74 66 57 51 51 54 57 60 63 68 71 68 61 53 46 40 37 36 34 33 32 30 29 29 28 28 27 27 27 27 26 25 26 29 33 35 35 35 35 37 41 44 47 48 48 47 47 47 45 42 41
80 80 81 82 80 78 75 75 75 76 78 76 70 60 50 47 49 53 57 61 65 67 65 58 50 44 39 36 34 33 32 31 30 28 28 28 28 28 27 27 27 27 26 26 29 33 36 36 36 36 38 40 45 48 51 53 53 52 51 48 45 44 43
78 77 79 81 79 73 68 67 70 74 74 68 60 51 45 45 50 55 60 63 63 59 52 46 41 38 35 33 32 30 29 29 28 28 28 28 27 28 28 28 28 26 26 29 33 36 37 37 37 38 40 43 48 53 55 56 56 53 50 47 45 44 43
74 70 69 69 67 63 61 62 65 67 64 57 50 45 43 47 54 59 63 62 56 47 41 38 36 34 32 31 30 28 27 27 27 28 28 28 28 29 30 29 28 27 29 33 36 37 37 38 39 42 44 48 53 56 57 57 54 50 47 45 44 43 41

ECMWFFLT1_250_rhum_282.txt.gz
RH
97 89 82 81 80 79 77 73 68 69 74 79 83 87 89 91 93 95 94 91 87 83 81 79 76 74 72 71 70 67 63 63 65 65 66 65 62 60 59 60 62 63 65 64 59 56 54 51 50 49 46 44 43 41 40 40 41 41 41 41 42 42 42
89 83 81 80 78 76 73 69 69 74 79 84 89 92 92 92 94 96 95 93 88 86 84 82 79 77 74 73 71 69 68 69 70 70 71 70 67 66 64 64 66 67 69 70 67 64 62 59 59 57 54 53 52 50 48 47 48 47 46 46 45 44 44
85 82 80 78 75 74 73 73 78 82 86 92 95 95 95 96 97 97 96 94 92 90 88 85 83 80 77 75 73 73 74 75 76 76 77 76 73 72 70 68 70 71 72 74 74 72 69 67 66 64 61 59 58 57 55 55 56 55 54 52 50 48 47
84 82 79 77 75 75 79 84 88 92 95 98 98 97 98 100 100 99 97 96 95 95 92 90 89 85 81 79 79 80 80 80 82 83 83 81 78 76 74 72 73 75 76 77 78 77 75 73 73 72 70 68 65 63 62 63 65 64 63 60 57 54 52
82 79 77 77 78 83 89 93 95 98 99 99 100 100 101 101 101 99 97 97 98 99 98 96 93 88 83 82 83 84 85 85 86 87 86 85 82 80 78 76 77 78 79 79 80 80 79 77 77 76 76 74 71 69 67 68 71 73 72 67 62 58 55
79 78 78 81 87 92 97 98 99 100 99 99 100 101 100 100 100 100 99 99 101 102 100 97 93 88 85 84 85 86 86 87 88 89 88 87 85 83 81 81 79 79 81 81 79 79 80 80 80 80 79 77 74 73 72 71 74 77 78 73 68 63 59
80 82 86 91 95 98 99 99 100 100 99 99 99 100 101 102 104 104 104 104 105 102 100 97 92 90 88 87 87 88 90 90 90 91 92 91 89 86 85 83 82 82 82 82 79 78 78 80 82 83 82 79 76 75 73 73 74 78 80 77 73 70 64
90 94 97 98 99 100 100 99 99 99 98 99 100 101 103 106 108 109 107 107 107 103 101 100 96 93 92 91 92 92 93 95 95 95 96 94 91 90 88 86 84 84 83 81 79 77 78 81 85 86 83 80 79 77 75 73 73 75 78 78 77 75 69
100 102 102 100 98 97 96 94 94 97 99 100 103 105 106 108 110 110 109 108 107 106 105 103 100 99 98 96 97 97 98 99 100 101 99 96 94 93 90 88 86 85 84 81 79 77 77 81 86 87 83 81 81 79 76 74 72 72 74 77 80 79 73
103 102 101 99 94 91 90 91 94 98 100 102 105 107 108 108 108 108 107 106 106 106 106 104 103 103 102 100 100 101 101 101 102 102 100 98 97 94 91 89 88 87 84 81 80 80 80 82 85 85 82 82 82 78 74 73 71 70 72 75 79 81 78
99 99 98 94 91 91 94 97 100 102 102 103 105 106 107 108 106 105 105 105 105 105 105 105 105 104 103 102 101 101 102 101 101 102 101 100 99 95 92 89 88 89 87 83 80 81 83 84 84 83 83 84 80 73 70 70 69 69 72 74 77 80 79
95 97 96 95 96 98 101 104 104 104 103 104 105 105 107 108 106 103 104 104 104 105 104 104 106 105 103 102 100 100 101 101 101 102 102 102 99 95 93 90 89 89 88 84 82 82 83 83 82 83 85 82 75 69 69 71 70 69 71 73 75 76 76
99 100 101 102 104 104 105 105 105 105 105 105 106 107 108 109 104 101 105 105 104 105 103 101 104 104 101 101 100 99 101 102 103 103 103 101 99 96 93 90 91 90 86 84 84 85 85 84 83 84 83 77 71 69 70 70 69 68 69 71 72 72 72
107 107 108 108 107 104 104 104 104 105 105 105 106 106 107 109 105 102 105 106 102 103 103 100 102 103 101 100 100 100 101 102 102 101 101 100 98 97 93 90 92 91 87 85 85 86 87 87 84 82 79 76 74 73 71 69 69 69 68 67 68 69 69
111 111 110 107 102 100 101 103 104 104 103 105 106 104 104 107 105 104 106 105 102 102 103 101 102 103 100 100 102 101 100 98 97 98 99 98 97 96 94 93 92 90 88 87 87 87 88 87 83 80 80 80 78 74 70 68 70 72 68 63 62 63 62
111 109 107 103 100 101 104 105 106 104 103 104 105 103 103 105 105 106 107 105 102 103 104 103 103 104 102 103 104 101 96 94 95 97 97 95 94 94 95 97 95 89 86 87 87 87 86 86 85 83 83 82 78 72 68 67 68 68 62 55 54 54 53
108 106 107 105 104 107 107 107 107 106 104 105 106 106 105 103 105 107 107 105 103 104 105 105 104 103 103 103 101 97 95 96 98 98 97 96 95 94 97 99 94 88 87 89 87 86 86 87 87 85 84 81 76 70 64 61 62 61 54 49 47 46 44
106 107 110 109 108 108 108 108 108 106 105 105 107 109 106 101 104 107 106 106 106 104 104 104 103 100 99 98 97 96 97 99 98 98 98 98 98 99 100 98 93 89 91 90 86 86 89 90 90 88 85 80 74 67 58 53 56 57 53 49 46 42 41
108 108 108 108 108 107 106 106 105 103 105 105 104 105 104 100 103 107 105 105 105 103 103 103 101 101 99 97 98 100 99 97 96 97 99 99 100 102 101 97 93 93 94 92 89 90 90 90 90 87 81 73 68 61 52 49 54 56 54 52 49 45 42
109 108 106 107 108 105 103 104 103 101 105 106 102 102 102 100 102 105 105 104 103 103 106 106 103 102 101 98 100 102 100 97 96 97 99 100 101 102 100 96 95 96 95 93 93 93 92 89 86 79 70 63 60 56 51 49 52 53 51 50 49 46 41
109 108 106 105 104 103 103 104 102 100 104 105 102 101 101 99 101 105 104 103 103 102 106 108 106 105 104 100 100 101 101 100 99 97 98 99 100 99 96 94 96 97 96 96 96 95 92 87 81 73 65 58 57 56 54 50 47 45 44 45 44 42 38
108 109 109 107 105 104 106 106 104 103 105 105 102 101 100 99 103 105 101 102 105 106 106 107 105 104 103 101 100 102 103 103 101 97 96 96 96 95 95 94 96 97 96 96 95 93 90 86 82 76 68 62 60 59 56 51 44 40 39 37 34 32 30
91 96 101 103 103 103 104 104 102 101 100 100 98 98 99 100 104 105 101 99 103 106 105 106 105 104 105 105 105 105 104 104 102 99 97 96 94 95 96 95 95 96 95 94 93 91 91 90 88 82 73 67 65 61 56 50 42 37 34 31 27 24 24
67 73 80 85 90 93 95 97 100 102 104 105 105 106 110 110 109 108 104 100 102 105 106 107 105 104 107 110 110 106 103 104 104 102 102 100 96 94 95 96 96 96 94 92 91 91 92 93 91 85 77 70 65 60 56 51 44 37 33 28 23 21 23
70 74 79 84 90 95 100 104 107 109 109 109 107 108 111 111 108 106 106 106 107 109 111 111 109 107 109 112 111 108 106 106 105 105 104 102 98 95 95 97 97 95 92 91 90 90 92 94 92 86 77 68 61 56 54 51 46 40 34 28 23 23 26
81 84 87 92 97 101 105 107 109 110 108 107 108 110 110 109 107 107 107 107 107 108 109 110 109 109 111 112 110 109 110 109 107 106 105 103 100 98 97 96 94 91 90 91 90 90 91 93 90 82 72 62 55 50 48 46 43 39 34 28 26 29 33
91 93 94 97 100 101 102 106 110 111 110 110 111 112 109 108 109 109 108 108 109 108 106 105 106 108 111 110 107 108 110 108 105 105 105 104 101 99 97 95 93 91 91 91 89 87 89 89 83 74 64 56 49 46 43 41 37 35 32 30 31 35 36
98 100 101 102 103 102 104 108 112 114 113 111 111 110 109 110 111 110 110 112 113 111 109 108 110 112 112 109 105 104 106 105 105 105 107 106 103 99 97 96 94 92 92 89 85 84 84 81 74 65 58 52 47 43 40 36 33 32 33 34 36 35 32
102 103 104 105 106 107 109 112 113 114 112 111 111 112 112 112 110 109 110 110 110 110 112 113 113 112 110 108 106 105 105 107 108 107 106 106 103 98 97 96 94 92 89 84 81 79 77 71 65 59 54 49 44 41 36 32 31 33 36 37 35 30 26
102 104 105 106 108 109 110 111 111 110 108 108 108 107 106 104 102 101 101 102 103 105 108 110 110 109 108 106 105 105 106 106 105 104 102 101 100 97 96 95 93 88 82 76 74 72 67 62 58 54 50 45 41 37 33 32 34 37 37 35 30 25 23
88 93 96 99 100 101 102 102 101 99 98 98 97 94 92 89 86 85 86 88 90 94 98 102 103 102 101 100 100 102 102 101 99 99 98 97 96 94 90 87 83 77 70 67 65 62 57 55 54 50 46 42 39 35 34 36 38 38 34 29 24 22 21
62 66 71 75 77 79 80 80 80 80 79 78 77 75 73 71 69 70 71 71 73 77 82 85 87 87 88 89 90 91 92 91 91 92 91 90 88 85 80 74 69 64 60 59 57 54 52 52 51 47 44 41 38 37 39 41 39 34 28 24 22 21 20
35 38 42 45 48 51 53 54 54 55 54 54 53 53 53 53 53 55 56 55 56 59 63 66 69 71 72 73 74 76 77 78 80 80 79 77 76 72 66 61 57 55 53 52 49 48 49 49 47 44 41 39 39 41 42 40 34 28 24 23 22 20 18
21 22 24 27 29 31 32 34 35 35 35 35 36 37 39 40 42 43 44 43 44 47 50 53 55 57 58 59 60 61 63 65 67 66 64 63 61 57 53 50 49 48 47 45 43 43 44 44 42 40 39 39 41 42 39 33 28 25 23 22 21 19 18
17 18 19 20 21 22 23 24 25 26 27 28 29 30 32 33 35 36 37 37 38 40 43 44 46 47 48 48 49 50 52 54 54 53 51 50 48 45 44 43 43 43 41 40 39 39 39 38 38 39 40 40 39 36 32 28 25 23 22 21 20 19 19
16 16 17 18 18 19 20 21 22 23 24 25 26 27 27 29 31 32 32 33 34 36 37 38 39 40 41 41 42 43 43 44 44 42 42 41 40 39 39 39 39 38 37 37 36 35 35 36 39 40 39 36 32 30 27 25 23 21 21 21 20 20 20

ECMWFFLT1_250_rhum_288.txt.gz
RH
91 93 93 94 95 95 97 101 103 105 106 106 108 107 106 108 110 109 107 104 102 104 107 106 105 105 104 103 103 103 102 100 97 96 98 99 99 97 95 94 93 93 90 83 76 69 64 63 65 68 71 72 74 76 77 78 78 77 77 79 83 86 88
88 89 90 90 92 93 95 99 101 103 105 105 106 107 108 110 111 110 107 106 105 105 105 104 104 104 100 96 96 97 98 100 101 102 104 105 103 99 95 92 88 84 78 73 68 65 65 67 71 76 79 79 79 79 79 79 80 81 82 84 87 89 90
86 87 88 90 91 92 94 98 101 104 106 108 109 108 108 108 107 107 105 104 106 104 101 101 103 104 102 98 97 98 101 105 106 105 103 100 96 91 86 81 76 72 69 68 69 71 72 74 77 81 83 84 84 83 83 83 85 86 88 89 89 90 92
88 90 92 95 96 97 98 100 104 107 107 109 111 108 107 106 105 106 106 105 106 106 103 103 104 106 105 101 99 99 100 100 98 94 90 86 82 78 75 71 68 67 69 73 77 80 80 80 82 85 86 86 87 88 89 90 91 91 91 90 90 93 94
91 95 98 102 103 102 104 105 106 108 107 108 109 107 106 106 104 103 104 103 103 101 100 101 101 101 100 98 95 93 90 87 83 80 77 74 72 71 71 72 73 74 76 80 84 87 86 85 86 88 88 88 89 92 95 95 93 91 90 91 93 96 96
95 98 100 104 107 107 109 107 106 106 105 104 105 103 102 102 99 98 98 98 97 96 97 97 96 94 91 87 84 80 77 75 74 73 73 73 74 76 78 81 83 83 83 84 88 90 90 90 90 91 92 91 91 93 96 94 89 88 90 92 92 94 94
95 99 100 101 103 104 103 100 99 99 99 99 99 98 98 96 95 94 93 93 92 90 89 87 85 83 81 78 77 76 75 75 76 78 80 81 83 84 85 87 88 88 87 87 89 91 93 95 95 96 98 96 93 93 94 89 85 86 88 87 88 91 92
95 95 96 97 97 97 96 95 95 95 96 96 95 93 91 90 88 87 85 85 83 82 81 82 81 81 81 81 81 81 80 80 82 83 84 85 86 86 88 88 89 89 89 88 90 92 95 99 100 101 102 99 94 93 91 84 81 84 84 82 85 91 92
99 96 96 98 97 95 95 94 92 92 91 89 88 85 84 84 83 83 83 83 83 82 83 84 84 84 84 84 84 83 83 83 83 84 85 85 86 86 88 88 88 89 89 89 90 93 96 98 101 104 105 100 93 89 84 78 76 79 81 81 85 90 91
101 98 97 99 97 94 93 92 90 89 88 86 86 85 85 85 84 84 84 84 84 85 85 85 86 87 86 87 87 86 86 86 85 84 85 85 85 86 86 86 87 88 89 87 87 89 91 93 98 103 103 98 90 83 77 74 76 79 81 83 87 93 94
98 97 95 95 94 92 91 90 89 88 87 87 86 85 84 82 81 81 81 81 82 84 86 87 88 90 90 89 89 88 87 86 84 84 85 85 85 85 85 86 89 91 91 87 84 83 84 87 94 98 97 95 89 79 73 75 80 83 83 86 91 96 98
94 93 90 88 87 87 86 84 84 83 83 83 83 83 81 79 79 79 80 82 84 86 89 91 92 93 92 90 88 87 86 85 85 86 87 88 88 89 91 93 95 96 95 92 86 83 82 86 90 94 96 95 88 78 76 81 87 88 87 90 93 96 99
99 98 95 90 87 86 85 83 83 83 83 84 85 85 84 83 83 84 84 86 89 91 93 95 96 95 93 91 90 89 90 91 91 91 92 92 92 93 95 96 95 95 96 96 91 87 88 90 91 93 96 94 87 84 86 89 91 90 89 91 93 95 98
101 101 100 98 95 91 89 88 87 87 87 88 90 90 89 87 86 86 88 90 92 94 95 95 95 95 95 94 93 94 94 93 91 89 89 90 91 92 93 94 94 95 97 97 94 92 94 95 93 94 96 95 92 92 93 91 90 89 91 94 94 95 97
92 91 89 90 90 90 91 93 93 92 91 91 93 94 93 91 91 91 91 91 93 94 94 94 94 94 93 92 91 90 88 85 83 80 80 82 85 89 91 93 96 99 101 99 97 96 96 95 94 95 97 98 96 95 95 92 90 90 93 96 94 94 99
88 88 86 85 84 85 90 95 97 97 97 95 95 94 91 89 89 91 92 94 95 96 95 94 91 88 84 81 80 81 80 79 77 74 74 78 83 88 92 94 98 102 104 103 99 97 95 93 94 94 94 94 93 94 94 92 91 93 95 95 94 96 101
92 95 96 95 93 91 91 93 95 97 97 96 95 91 87 82 80 80 83 86 88 88 87 84 80 75 72 71 74 78 80 79 76 74 76 81 86 89 91 94 100 104 104 101 96 93 89 87 87 87 85 86 88 91 91 90 93 96 92 90 95 100 101
77 82 86 90 92 93 93 93 93 92 90 89 87 82 77 71 66 63 63 65 67 69 69 69 69 69 70 73 79 83 84 82 78 77 79 82 83 83 85 92 98 98 93 89 84 80 75 73 73 72 72 78 83 85 86 88 93 93 88 88 96 101 102
51 55 58 62 66 70 74 77 78 78 76 75 74 69 63 56 51 49 49 50 53 56 58 60 62 65 70 75 79 80 78 74 71 70 71 71 69 70 76 82 81 77 74 73 68 62 60 61 62 63 67 73 76 77 80 84 87 87 87 90 97 101 104
39 40 41 42 43 45 48 51 53 55 56 57 58 57 53 50 47 46 46 47 48 49 51 54 56 59 62 66 66 64 62 60 59 60 61 61 60 64 69 70 67 65 67 68 65 62 62 64 65 68 72 74 74 75 78 79 80 85 91 96 101 103 104
44 44 45 47 48 48 49 51 52 54 55 55 56 56 55 53 52 53 53 54 55 56 58 62 65 67 68 67 64 62 62 62 63 65 68 70 72 74 76 76 75 76 77 77 77 77 77 77 78 82 83 82 81 82 83 83 86 91 96 99 102 103 102
65 66 66 68 69 68 68 70 71 72 71 69 69 68 65 64 64 65 65 66 68 72 74 77 81 84 84 80 75 73 74 75 77 79 81 84 87 87 87 86 87 88 89 90 90 89 88 90 93 95 94 92 91 92 93 96 99 100 100 101 100 99 99
78 76 76 77 77 76 75 76 76 77 76 74 73 72 70 68 67 66 66 69 73 78 82 86 91 97 98 92 82 78 79 81 84 86 87 89 90 90 90 89 89 92 94 94 93 92 93 97 99 100 101 101 102 102 101 103 105 105 104 103 100 99 100
73 72 71 71 71 70 69 69 70 70 70 70 70 69 68 67 65 63 62 64 67 71 77 83 88 96 101 97 88 82 81 82 85 88 89 89 90 91 92 92 92 93 92 91 91 92 95 99 101 104 106 107 106 106 105 106 106 105 103 101 101 103 103
66 65 64 63 64 64 63 63 63 64 64 64 64 64 64 63 62 60 58 58 60 63 67 73 79 86 92 91 87 84 84 84 86 88 88 89 92 95 97 97 95 93 92 91 92 95 98 103 107 109 109 108 108 108 109 109 108 105 102 101 102 101 100
58 57 55 54 54 55 55 55 55 56 56 56 55 55 54 53 51 50 49 48 50 54 58 64 71 76 77 75 76 80 84 87 89 89 89 89 91 93 94 94 94 94 95 97 99 102 104 108 110 110 111 112 112 111 111 111 110 107 105 104 101 97 96
46 44 42 40 40 40 40 40 41 41 43 43 44 44 45 44 44 43 41 40 40 44 49 53 59 62 63 65 70 75 79 84 86 87 86 84 83 84 87 91 94 97 100 102 104 105 106 107 109 110 111 112 113 112 111 111 110 108 106 104 100 97 98
31 29 27 26 25 24 24 23 24 24 25 26 27 28 29 31 33 34 34 34 33 35 39 42 46 51 56 62 67 68 68 71 75 78 78 77 75 77 81 87 92 95 98 99 99 100 102 104 106 107 108 110 111 110 109 107 105 104 102 100 97 97 99
20 19 17 16 16 15 15 15 14 15 15 16 16 17 17 18 20 21 22 23 24 25 28 30 34 39 45 50 54 56 57 60 63 66 69 70 69 69 70 75 80 86 89 90 90 90 94 98 102 106 109 110 109 107 104 101 99 100 99 95 93 93 91
14 14 13 12 12 12 12 12 12 12 13 13 13 14 14 14 15 16 16 17 17 18 20 21 24 27 30 33 37 40 43 46 48 51 54 57 59 60 61 64 70 75 80 81 80 80 83 89 96 102 105 105 103 101 99 98 97 97 95 92 88 84 79
11 12 12 11 12 12 11 11 11 11 12 12 12 12 13 13 13 14 14 15 15 16 17 18 19 20 21 23 25 27 29 31 33 35 38 42 46 49 52 55 59 63 65 65 66 69 74 78 84 88 90 91 90 89 89 88 88 87 86 82 78 72 66
11 11 11 11 11 11 10 10 10 10 10 11 11 11 12 12 13 13 13 14 14 15 15 16 17 17 18 19 19 20 22 23 24 26 28 30 33 36 39 42 45 46 47 49 52 56 59 62 65 68 70 70 70 70 71 70 70 69 67 64 60 56 51
10 10 10 10 10 10 10 10 10 10 10 10 11 11 11 12 12 12 12 13 13 14 14 15 15 16 17 17 18 19 20 20 21 22 23 24 26 28 29 31 32 33 35 37 39 41 42 45 48 49 50 50 50 50 50 50 50 49 48 47 45 43 40
10 10 10 10 10 10 10 10 10 10 10 10 11 11 11 12 12 12 12 12 13 13 13 14 15 15 16 17 18 18 18 19 19 20 21 22 23 24 25 25 26 27 27 28 29 30 31 34 35 35 35 35 35 35 35 36 37 37 37 37 37 36 35
10 10 10 10 10 10 10 10 10 10 10 10 11 11 11 12 13 13 13 13 13 13 13 14 14 15 15 16 17 17 17 18 18 19 20 21 21 22 23 23 24 24 25 25 25 26 27 28 28 29 29 29 29 30 31 32 33 33 33 34 33 32 31
11 10 10 10 10 10 10 9 10 10 10 10 10 11 11 12 12 13 13 14 14 14 14 14 15 15 15 15 16 16 16 17 17 18 19 19 20 21 21 22 23 23 24 24 25 25 26 26 27 27 27 28 29 29 30 30 31 31 30 30 29 28 27

ECMWFFLT1_250_rhum_294.txt.gz
RH
104 106 104 104 108 106 102 102 105 106 105 105 104 103 104 105 105 103 103 106 103 102 105 105 105 105 104 106 108 108 108 106 103 102 99 98 97 97 96 94 90 86 85 85 85 86 86 85 84 85 87 91 95 96 95 93 93 94 95 95 94 95 95
104 104 103 103 104 103 103 102 102 104 103 102 102 103 102 102 103 101 102 105 105 104 105 105 106 107 107 109 109 108 107 106 105 105 104 104 103 102 101 98 94 90 87 86 86 86 87 87 87 89 90 92 96 99 99 99 100 101 99 97 96 99 103
105 105 103 104 104 102 103 104 102 102 103 102 102 103 102 104 106 104 102 104 105 106 105 103 103 105 106 105 103 103 104 104 104 105 106 106 106 105 104 104 103 99 96 95 94 93 95 98 99 100 100 101 103 106 107 107 108 107 105 107 108 106 108
106 110 105 103 106 104 104 106 105 103 104 104 104 103 102 103 105 104 102 101 99 99 99 96 96 98 100 99 97 99 103 103 102 103 103 102 102 103 104 104 105 102 99 98 98 97 100 103 103 104 105 105 106 108 109 108 109 107 105 107 108 106 109
105 109 105 103 107 106 105 106 107 105 103 102 103 103 101 100 101 100 100 100 98 97 97 96 97 98 99 100 101 102 103 104 104 104 102 100 99 100 102 101 100 101 99 96 97 98 98 100 102 103 103 104 107 107 104 105 108 108 104 104 106 107 109
105 106 105 105 106 105 105 106 104 104 104 103 102 103 103 102 102 102 102 103 103 102 100 100 102 103 101 101 104 107 105 102 104 106 104 102 100 100 102 101 100 102 102 98 97 98 97 98 102 104 102 102 105 106 102 101 105 107 105 108 111 108 103
107 105 104 106 108 104 104 107 105 102 103 105 105 104 103 104 104 104 103 103 104 106 104 100 102 107 106 102 102 108 107 101 102 107 105 104 103 102 105 107 103 102 104 103 99 99 100 99 100 104 104 102 103 107 105 103 108 111 109 107 106 104 100
108 107 104 105 109 106 103 106 108 106 104 106 108 107 105 104 105 106 105 103 105 109 108 102 101 107 109 104 101 106 109 103 102 105 104 102 102 100 102 106 103 98 99 102 100 98 97 97 97 99 101 100 100 105 108 106 106 106 103 100 99 98 97
108 109 108 107 108 108 105 104 105 106 105 105 107 108 107 106 107 109 108 106 108 110 109 107 106 109 108 105 104 109 110 107 105 107 107 105 102 99 99 100 99 96 95 97 97 95 93 93 93 94 97 98 98 101 103 101 97 96 95 95 92 90 89
110 111 112 112 111 110 109 107 105 104 103 102 101 102 103 102 102 103 103 103 105 105 106 107 107 108 106 104 105 108 108 107 105 105 106 105 102 100 98 97 95 94 93 92 92 92 90 90 90 92 94 95 96 96 95 93 91 90 90 87 85 85 87
99 100 101 102 103 103 103 103 101 100 99 98 97 96 95 94 93 94 94 94 95 96 98 99 98 99 99 99 100 100 99 99 99 99 98 98 97 95 94 93 91 90 90 88 87 87 87 87 88 90 91 92 92 92 91 89 85 83 82 82 82 85 87
74 75 75 76 77 79 80 80 80 81 81 83 84 85 85 84 84 86 86 86 87 87 87 88 87 87 87 88 89 89 88 88 89 89 89 87 87 86 85 85 85 84 84 83 82 82 81 83 86 88 88 89 90 88 85 81 78 78 80 81 82 86 91
61 61 61 61 61 61 62 62 62 62 63 64 66 68 68 69 70 72 73 73 74 74 74 74 74 73 73 74 76 76 76 77 77 77 76 74 73 73 72 74 75 76 76 76 77 78 79 83 87 88 90 91 92 88 82 80 81 81 81 82 84 89 94
52 53 52 52 53 52 52 51 50 49 48 48 48 48 48 48 49 51 52 54 55 56 57 58 58 59 60 61 62 63 63 64 63 63 62 61 60 60 60 62 63 65 68 69 69 71 75 81 84 87 90 92 91 87 83 81 82 80 79 81 85 90 96
46 47 46 46 46 45 45 44 42 41 40 39 38 37 36 36 36 37 37 39 41 41 42 43 43 44 45 46 47 48 48 49 49 48 48 48 49 51 53 54 56 60 63 63 62 64 68 72 75 77 80 81 80 79 76 73 71 69 70 74 79 85 92
42 41 41 41 40 39 39 39 38 37 36 35 34 33 32 32 32 32 33 33 35 35 37 38 38 39 39 40 41 41 42 42 42 41 41 41 42 44 46 48 53 58 63 64 64 65 66 66 65 63 63 63 63 64 63 59 56 56 59 64 69 74 78
38 38 38 38 38 37 37 37 36 35 34 34 33 32 31 31 30 30 31 31 32 32 33 34 36 37 37 37 38 39 39 39 38 37 36 36 36 37 37 40 45 50 54 58 60 61 61 58 54 51 49 48 48 50 50 48 48 50 54 57 59 62 65
41 42 42 42 42 42 42 42 42 42 41 40 40 39 38 37 37 36 36 36 36 36 36 37 38 40 41 41 43 44 43 42 42 42 41 40 40 39 39 42 46 48 48 49 50 51 51 49 47 46 45 44 45 46 47 48 51 54 56 56 56 58 59
50 51 51 52 52 51 51 51 51 52 51 51 51 50 48 47 46 45 44 43 42 43 43 43 44 46 48 51 53 55 55 55 56 56 55 54 53 52 55 61 63 62 60 60 61 61 60 59 59 59 59 60 62 64 64 66 68 70 69 69 69 68 66
58 60 61 61 60 59 57 56 56 56 56 56 56 55 52 50 48 47 46 44 43 43 43 43 43 44 46 48 50 52 54 55 57 57 56 54 52 53 59 63 62 60 62 65 67 66 65 64 65 66 67 70 74 76 76 77 80 81 79 77 78 77 74
58 58 60 60 60 59 58 56 55 55 54 52 52 51 49 47 46 45 43 42 42 42 42 42 42 41 42 43 44 45 47 48 50 51 50 48 48 49 51 52 51 51 54 56 58 59 60 60 61 63 66 69 73 76 77 77 77 78 76 73 73 73 72
53 53 54 55 56 56 56 55 53 52 51 50 49 49 48 47 46 45 44 43 45 46 46 47 47 47 49 49 49 51 52 53 54 54 54 54 54 54 53 52 52 53 54 56 57 59 60 62 63 66 69 71 74 78 80 78 74 72 72 70 70 71 74
50 50 52 54 56 57 57 56 55 54 54 54 55 56 56 55 54 54 53 52 54 55 56 56 55 55 56 56 58 60 60 59 58 57 56 57 57 56 55 54 53 53 54 56 58 58 59 61 63 66 67 69 72 75 76 74 69 66 66 69 72 75 79
57 59 61 63 66 67 67 66 65 64 64 64 65 66 65 64 62 61 59 58 58 59 59 59 58 57 56 55 57 60 61 59 57 55 53 53 52 52 52 52 52 52 52 53 54 55 57 60 62 63 63 64 63 62 61 62 63 63 64 68 73 76 78
69 70 71 72 73 74 74 73 71 69 67 67 67 67 66 64 62 59 57 56 56 56 55 54 54 54 53 53 55 58 59 58 56 54 51 49 47 48 48 49 48 47 46 45 46 48 50 53 55 56 57 56 52 50 50 52 55 57 58 59 63 68 73
70 69 68 68 68 70 71 71 68 66 63 61 61 61 60 59 57 55 52 51 51 51 50 49 49 49 49 49 50 53 55 55 54 52 49 46 43 42 42 43 41 38 36 36 37 40 43 46 48 49 50 49 47 46 47 48 49 49 49 49 50 54 61
64 63 61 61 62 63 64 64 62 59 56 54 53 53 52 51 50 47 45 44 43 42 41 41 42 41 40 41 41 43 45 46 45 44 42 40 37 34 34 34 33 30 30 31 33 36 38 40 41 41 41 42 42 41 41 42 42 44 45 45 46 46 51
56 54 52 51 51 52 52 52 50 48 45 44 43 42 41 41 39 36 35 33 32 31 31 31 31 30 29 29 29 30 31 32 32 31 30 28 27 25 24 24 24 25 25 26 26 28 28 29 29 29 30 31 31 32 33 34 36 39 41 43 43 45 51
42 40 38 36 36 35 35 35 35 32 31 29 29 28 27 27 26 25 23 22 21 21 22 21 21 20 20 20 20 20 20 21 20 20 19 19 18 18 17 16 18 19 19 19 18 18 18 19 19 20 21 22 22 23 25 26 27 29 31 32 33 37 43
24 24 22 21 21 20 20 20 21 20 20 19 18 17 17 17 17 16 16 16 15 15 15 15 15 15 14 14 15 15 15 15 15 15 15 15 14 14 14 14 15 15 15 15 15 15 15 16 16 17 18 18 19 19 20 20 21 21 22 22 23 26 29
15 14 14 14 14 14 14 14 15 15 15 15 14 14 14 13 13 13 13 13 13 13 13 13 13 13 13 12 13 13 13 13 13 13 13 13 13 13 13 13 13 13 14 14 14 14 15 15 15 16 16 16 16 17 17 17 17 18 18 19 19 21 22
12 12 12 12 12 13 13 13 13 13 13 13 13 13 13 13 13 12 12 12 12 12 12 12 11 11 11 11 11 12 12 12 12 12 12 12 12 12 12 12 12 12 12 13 14 14 14 14 14 14 14 15 15 15 15 16 16 16 17 17 18 19 21
12 11 12 12 12 12 12 13 12 12 12 12 12 12 12 12 12 11 11 11 12 11 11 11 11 11 11 11 11 11 11 11 11 11 12 12 12 12 12 12 12 12 12 13 14 14 14 15 15 14 15 15 15 15 15 15 15 16 16 16 17 18 18
11 10 11 11 11 11 12 11 11 11 11 11 12 11 11 11 11 11 11 10 10 11 11 10 11 10 10 10 10 10 11 11 11 11 12 12 12 12 12 12 12 13 13 13 14 15 16 16 16 16 16 16 16 16 16 16 16 16 15 15 16 16 17
11 10 10 10 10 11 11 11 11 10 10 11 11 11 11 11 10 10 10 10 10 10 10 10 11 11 11 11 11 11 11 11 11 12 12 12 12 12 13 13 13 13 13 14 14 15 15 16 16 16 16 16 17 17 17 17 17 17 16 16 16 16 17
12 11 10 10 10 10 10 10 10 10 10 10 11 11 11 11 11 10 10 10 10 11 11 11 11 11 11 11 11 11 11 11 11 11 11 12 12 12 12 12 12 13 13 13 13 14 14 14 15 15 15 16 16 17 17 18 18 18 18 18 17 17 17

ECMWFFLT1_250_rhum_300.txt.gz
RH
41 46 55 68 82 93 102 104 103 101 101 100 101 101 100 100 100 100 100 100 100 100 100 100 100 100 100 101 101 100 101 101 101 101 101 100 101 101 102 100 94 88 88 93 96 94 92 94 97 98 102 106 107 106 105 102 97 95 94 94 92 89 87
41 43 47 53 61 71 84 95 100 102 101 100 100 101 100 100 100 100 100 100 100 100 101 100 100 100 100 101 101 100 100 101 101 101 101 100 100 101 102 101 98 93 91 94 100 102 100 99 102 105 105 107 109 108 103 98 94 91 89 88 87 85 85
46 47 48 50 54 58 64 73 82 91 97 101 103 103 101 100 100 99 100 102 102 101 101 101 100 100 100 100 100 100 100 101 101 101 101 101 101 100 100 101 101 97 95 96 99 103 102 99 100 102 101 101 102 101 97 96 95 92 90 91 91 90 90
52 53 54 56 57 59 60 63 66 72 79 88 97 102 103 103 102 100 101 102 101 101 101 101 100 100 100 100 100 100 101 101 100 101 102 101 101 101 100 100 101 98 93 92 94 98 99 96 95 96 97 98 99 100 101 102 102 100 100 100 100 100 98
51 53 57 61 64 66 69 70 71 71 71 74 79 85 91 95 99 102 103 102 102 102 101 100 101 102 101 100 101 101 102 102 101 101 102 101 100 102 102 101 101 98 94 91 94 98 99 97 97 98 100 102 102 103 105 105 104 103 104 103 104 105 103
52 54 57 62 67 72 76 78 80 82 82 82 80 81 81 83 87 93 96 99 104 107 104 102 102 103 101 100 102 103 102 102 103 102 102 103 101 101 104 105 102 100 100 99 98 100 102 102 101 102 103 102 102 103 103 102 103 105 104 105 106 107 104
51 53 56 60 63 68 73 77 81 86 90 92 93 94 93 90 89 90 90 92 96 100 101 102 103 102 101 102 103 103 101 102 104 102 101 102 100 100 104 105 101 100 104 105 102 101 102 103 103 105 105 104 105 106 104 105 108 109 107 106 106 105 103
49 49 50 52 55 58 62 66 72 78 83 87 91 94 96 96 95 94 94 93 92 92 94 97 99 100 102 103 102 101 100 101 102 102 101 102 102 103 105 104 102 103 106 107 106 105 105 106 107 108 108 109 110 109 108 108 109 108 107 106 106 105 103
51 51 51 52 52 54 55 57 60 63 67 71 73 77 79 81 82 82 83 84 83 82 82 83 84 85 87 87 85 84 83 82 82 81 80 81 81 82 81 80 80 81 81 81 80 81 81 82 83 85 87 89 90 90 92 92 91 91 92 93 95 94 94
57 57 58 58 58 58 58 58 60 61 62 63 64 66 68 69 71 72 74 76 78 79 78 78 77 77 77 76 75 73 71 70 69 66 65 65 65 64 63 62 62 61 61 61 59 59 60 59 58 61 64 65 64 65 67 67 66 67 68 68 70 73 76
54 54 56 59 61 62 63 63 63 64 65 66 66 67 68 70 71 73 74 76 78 80 81 81 80 80 80 79 77 76 75 74 73 71 70 69 68 68 67 66 66 65 64 62 59 58 57 55 55 59 62 62 59 58 57 56 54 52 52 53 53 57 62
46 47 49 52 56 59 62 63 64 65 66 67 68 70 70 73 76 78 80 79 79 78 78 78 78 78 79 78 77 77 76 76 76 75 75 74 74 75 74 74 73 72 71 68 64 60 56 55 55 57 59 60 58 55 52 49 48 46 46 46 46 48 53
43 44 47 50 53 56 58 60 62 63 64 65 68 70 72 75 80 84 87 88 87 86 84 82 81 80 79 79 78 77 77 77 78 77 77 76 77 78 79 79 78 77 76 74 69 64 60 59 59 57 56 56 54 49 46 44 44 44 43 42 40 42 45
47 49 50 52 55 58 60 61 62 64 65 65 66 66 67 71 76 80 83 86 88 90 90 90 88 86 85 84 83 81 80 79 78 78 77 77 77 78 79 80 80 79 77 73 67 62 60 61 61 57 55 54 51 47 44 44 44 43 41 39 38 38 39
53 56 57 58 59 61 63 63 62 62 63 63 62 60 59 61 64 65 67 69 71 73 75 78 79 80 81 81 81 81 79 78 76 75 75 76 76 78 80 80 79 76 71 65 59 55 54 54 54 52 51 50 48 46 45 45 44 43 42 41 40 39 39
55 59 60 60 60 60 62 61 58 56 57 57 56 54 55 57 58 58 58 58 57 57 58 59 61 63 65 67 69 70 71 71 71 71 71 70 70 69 69 68 67 64 59 55 52 49 48 48 48 48 47 46 46 45 45 45 44 44 44 44 43 43 42
55 58 59 60 59 57 57 55 51 48 49 49 48 48 48 50 51 52 52 53 53 53 53 54 54 54 55 56 58 59 60 60 60 60 61 60 60 59 58 57 57 55 53 51 49 48 46 46 46 46 46 46 46 46 46 46 46 47 49 48 47 47 49
55 58 58 57 56 54 52 51 48 46 46 46 44 43 43 45 47 48 48 49 50 51 51 51 51 49 49 49 49 50 50 49 48 48 48 49 50 50 52 53 52 50 48 46 45 45 44 44 45 46 46 46 47 47 48 49 51 53 53 52 53 55 56
54 55 54 51 48 47 46 46 46 44 43 43 42 40 40 42 45 47 47 46 46 46 46 44 43 42 41 42 43 43 44 43 42 42 42 43 43 45 48 51 50 48 46 45 44 43 43 43 43 44 44 45 46 46 46 47 51 54 54 52 53 55 55
54 55 54 51 48 46 44 43 42 41 40 40 40 40 40 41 43 44 44 44 44 45 46 45 43 42 41 40 40 40 40 39 39 38 38 39 40 41 43 45 45 44 44 44 43 43 42 41 40 40 40 41 41 42 41 40 43 47 48 46 47 48 47
54 55 56 55 52 49 47 44 44 46 46 46 46 46 46 47 47 47 46 48 49 50 50 49 47 46 44 44 44 44 45 45 44 44 45 46 47 48 49 49 50 51 52 52 52 52 51 51 50 50 49 48 47 47 47 45 45 47 48 48 48 48 47
52 54 57 57 56 54 53 52 53 54 55 54 53 52 51 52 52 53 53 55 57 59 59 59 59 60 60 59 60 60 60 59 59 58 58 58 58 57 57 57 58 58 60 61 62 62 62 62 63 63 62 61 58 57 57 56 54 55 56 57 58 59 59
54 56 58 59 57 56 55 57 59 60 61 61 62 62 64 65 66 67 67 67 69 70 69 69 69 68 68 67 66 64 62 61 59 58 57 56 55 55 54 54 54 54 55 55 56 58 59 60 62 63 62 61 59 56 55 54 54 55 58 60 62 65 67
52 54 57 60 62 63 65 66 69 71 72 72 73 74 75 73 71 69 67 66 65 66 65 65 64 63 61 59 57 55 53 51 50 49 47 46 45 44 44 44 44 45 45 45 46 48 51 53 55 56 56 55 53 51 48 47 48 49 51 54 58 61 63
62 64 67 70 73 75 76 76 76 76 76 75 74 74 72 70 67 64 61 61 61 61 60 59 59 58 56 53 50 48 46 45 44 41 39 37 36 34 34 33 33 32 32 33 34 35 37 40 42 43 45 44 43 42 42 41 41 41 42 45 48 52 55
71 72 73 75 78 80 81 81 80 79 77 75 74 73 70 66 63 60 58 57 56 54 52 50 49 49 47 45 42 39 38 38 37 34 31 29 26 24 23 22 21 21 20 20 21 21 22 23 26 27 28 28 29 30 30 30 30 30 30 32 35 39 43
74 76 78 80 82 84 84 84 84 82 81 78 75 71 66 61 57 54 52 49 46 42 38 36 34 33 31 29 27 26 25 25 24 23 21 20 18 16 15 14 13 13 13 13 13 14 14 14 15 16 16 17 17 18 18 19 19 19 20 21 22 23 27
83 84 83 83 84 85 86 87 87 85 82 79 74 67 60 53 48 42 37 33 28 25 22 21 19 18 17 16 16 15 15 15 15 15 15 14 14 13 12 12 12 11 11 11 11 11 12 12 12 12 12 13 13 13 13 13 14 14 14 14 14 14 16
88 86 84 83 83 83 85 87 87 82 75 69 60 51 43 36 30 24 20 17 15 14 14 13 12 12 12 12 12 12 12 12 12 12 12 12 12 12 12 11 11 11 11 11 11 11 11 11 11 11 11 11 11 12 12 12 12 12 12 12 12 12 12
86 85 83 81 80 78 77 78 76 69 60 49 37 29 23 20 17 15 14 13 12 11 11 11 11 11 11 11 11 11 11 11 11 11 11 11 11 11 11 11 11 10 10 10 10 10 10 10 10 11 11 11 11 11 11 11 11 11 11 11 12 12 11
81 78 74 72 72 72 69 64 57 48 38 28 21 18 16 15 15 14 13 12 12 12 12 12 12 12 12 11 11 11 11 11 11 11 11 12 11 11 11 11 11 11 11 11 10 10 10 10 10 10 10 10 10 10 10 10 10 10 11 11 11 11 11
77 71 66 62 59 56 50 42 34 26 21 18 16 16 16 16 16 15 14 13 13 12 13 13 13 13 13 12 12 12 12 12 12 12 12 12 12 12 11 12 12 12 12 12 11 11 10 10 10 9 9 9 9 9 9 9 9 10 10 10 10 10 11
67 60 53 46 38 31 26 23 20 18 17 16 17 17 18 18 17 16 15 14 14 14 14 14 14 13 13 13 12 12 12 12 11 12 12 11 11 12 11 11 11 11 11 12 11 11 11 10 10 10 9 9 9 9 9 9 9 9 9 10 10 10 10
46 37 31 25 20 18 17 17 18 17 17 18 18 18 18 18 17 16 15 14 14 14 14 13 13 13 12 12 13 12 12 12 11 11 11 11 11 11 10 10 10 10 11 11 11 11 11 10 10 10 10 10 10 10 9 9 9 9 9 9 9 10 10
25 19 16 15 16 17 18 18 18 18 18 18 18 18 18 17 16 15 14 14 14 15 15 15 14 14 14 13 13 13 12 12 12 11 11 11 11 11 11 10 10 11 11 11 11 10 10 11 10 10 10 10 10 10 10 10 10 9 9 10 10 10 10
17 16 15 15 16 18 19 19 18 17 17 17 18 18 18 18 18 17 17 16 16 17 17 17 16 15 15 14 13 13 12 12 12 11 11 11 11 11 11 10 11 11 11 11 11 10 10 10 10 10 10 10 10 10 10 10 10 10 10 10 10 10 10

ECMWFFLT1_250_rhum_306.txt.gz
RH
33 33 34 35 36 37 38 39 40 40 41 42 42 42 42 43 43 44 44 44 44 44 44 44 45 45 44 43 43 42 43 44 46 48 50 51 52 54 54 55 54 53 65 83 89 89 92 96 101 106 106 106 106 106 105 103 103 104 104 103 101 104 106
30 30 31 31 32 33 34 36 37 38 39 40 41 42 42 43 43 44 44 44 44 44 44 44 45 45 45 44 44 45 45 45 46 47 50 53 56 60 62 63 63 61 64 76 85 89 93 99 102 104 105 106 107 108 107 106 105 104 105 106 105 106 110
27 27 27 27 28 28 29 30 32 34 37 38 39 41 41 42 42 42 43 43 43 43 43 44 44 45 45 45 45 46 47 47 48 48 49 52 55 61 67 70 72 72 73 78 85 88 92 101 106 106 105 103 104 106 104 103 104 102 102 105 104 103 105
25 24 24 25 25 26 26 27 28 30 32 35 37 39 40 41 40 40 41 42 43 45 45 45 46 46 47 47 47 49 50 50 51 51 50 51 52 56 62 68 74 78 81 84 88 90 89 93 100 104 105 105 104 103 101 100 101 101 101 101 101 100 101
23 23 22 23 23 24 25 27 29 29 30 31 33 35 37 38 39 39 40 41 42 45 47 49 50 50 50 51 51 52 53 54 54 54 53 52 52 53 54 58 63 69 74 80 88 93 91 91 94 98 102 105 105 104 104 102 100 101 102 100 100 101 100
22 22 22 22 22 24 26 28 30 30 30 30 31 33 35 36 37 38 39 41 42 44 48 51 53 54 54 55 56 57 57 58 58 57 56 55 54 53 53 54 56 59 62 67 75 83 88 91 95 98 101 103 102 102 104 105 103 103 102 101 103 103 100
22 23 23 24 24 25 26 28 28 28 28 29 31 33 34 35 36 36 37 40 43 45 49 52 54 56 57 58 59 60 60 61 61 60 60 59 59 58 58 58 59 60 61 63 66 72 77 83 90 96 101 103 101 100 102 104 106 106 105 105 106 103 101
26 26 27 27 26 27 27 28 27 27 26 27 28 30 33 35 37 38 40 41 43 45 48 51 55 58 61 63 64 65 66 66 66 64 64 63 61 60 59 60 61 62 64 65 67 70 72 76 81 90 98 102 101 102 104 104 104 105 106 105 104 103 105
30 31 33 33 32 31 30 29 28 26 26 26 27 30 32 35 37 39 41 43 45 47 48 50 54 58 62 65 66 68 69 69 67 65 64 63 60 58 56 56 57 59 61 64 65 67 69 70 75 83 91 97 101 104 105 104 104 106 107 106 104 103 106
36 39 41 42 41 39 37 35 32 30 30 29 30 32 33 35 36 38 40 41 42 43 45 46 48 52 56 58 58 58 56 55 54 52 51 52 51 52 52 51 52 54 57 59 62 65 67 67 70 76 81 87 93 98 101 102 102 104 104 104 104 103 104
42 46 50 52 51 49 45 41 38 37 36 34 34 34 35 36 37 39 40 39 38 38 39 40 42 44 47 48 47 46 45 46 49 51 55 58 61 64 64 63 62 62 61 62 64 67 70 71 74 78 80 82 85 88 90 91 94 98 100 100 100 101 103
50 52 56 60 61 59 54 49 46 45 44 43 41 39 39 41 44 46 46 44 43 43 44 46 48 48 49 50 53 56 60 64 68 71 75 78 80 81 79 76 74 71 69 68 67 68 70 72 74 77 82 85 88 89 88 86 85 87 92 95 95 96 101
59 60 63 66 67 67 64 60 57 55 54 53 52 49 49 52 57 60 60 59 59 58 58 61 62 63 65 67 70 72 73 72 71 70 69 67 65 64 61 59 58 57 56 55 54 54 55 56 55 57 63 69 73 77 81 84 84 82 83 87 89 91 95
63 64 66 69 70 70 70 68 67 66 66 65 63 60 59 62 67 70 71 71 71 68 68 68 67 68 70 71 70 67 63 60 57 54 51 48 45 42 40 39 38 37 37 36 36 37 38 40 40 39 43 46 47 50 54 60 65 69 71 76 81 86 90
62 62 63 64 66 68 68 68 69 70 72 72 70 67 64 65 69 70 70 69 68 65 64 63 61 60 58 57 54 50 47 44 42 40 39 38 37 34 32 31 30 30 29 28 28 29 31 35 37 37 39 40 40 39 40 41 44 47 51 57 63 71 81
60 60 60 59 60 61 62 61 62 63 66 68 68 67 65 64 64 64 63 60 57 55 54 52 49 47 44 42 40 37 34 32 30 30 30 30 31 30 30 30 30 29 28 27 26 27 28 31 34 37 41 44 46 46 45 45 44 44 46 47 48 53 62
58 58 60 60 60 60 60 58 56 56 56 56 56 56 56 56 55 53 52 48 45 43 41 39 37 36 34 33 32 31 29 28 27 27 27 27 28 29 30 31 31 29 29 28 29 29 30 32 34 37 40 44 47 49 48 47 48 49 50 47 44 48 53
55 56 58 60 61 61 60 58 54 51 50 48 45 43 42 41 40 39 38 36 33 32 31 30 29 28 28 28 28 28 27 27 27 27 28 29 30 31 33 34 32 32 32 33 33 34 36 38 39 41 42 43 45 46 44 42 43 48 49 44 41 44 48
53 54 55 56 56 56 56 53 50 46 43 41 37 34 31 30 29 28 28 27 27 26 26 26 25 24 24 24 24 25 26 26 26 26 27 28 29 30 32 33 33 34 37 38 38 38 39 41 42 42 42 42 42 41 39 36 34 37 40 39 37 39 41
51 53 52 52 51 51 50 48 45 42 38 35 32 29 27 25 25 25 25 25 25 24 24 23 23 22 22 23 24 25 25 25 25 25 26 27 28 29 31 31 33 35 37 38 39 39 40 41 42 43 42 41 41 40 38 36 32 31 32 32 32 34 35
48 49 49 48 46 45 43 41 39 37 34 30 28 26 25 24 24 24 24 25 25 25 24 24 23 23 23 24 24 25 26 27 27 27 28 29 30 31 32 33 34 36 36 37 37 38 39 39 40 41 41 40 39 39 38 37 34 31 30 28 28 29 30
42 43 44 44 42 39 37 35 34 32 30 28 26 25 25 24 24 24 24 25 26 25 25 25 24 24 25 26 27 28 28 29 30 30 32 34 35 37 39 41 44 46 47 48 49 49 51 52 51 51 50 48 47 46 46 46 43 40 36 33 30 29 30
39 40 41 40 38 36 34 32 31 30 28 27 27 26 26 26 25 25 25 26 26 26 27 27 27 28 29 29 30 32 33 34 37 40 43 47 50 53 57 59 62 64 66 66 67 67 67 67 66 64 63 61 59 57 58 58 56 54 51 47 43 39 38
38 38 39 38 37 34 32 31 31 30 29 29 28 28 28 28 27 28 28 28 29 30 31 32 33 35 37 39 41 43 46 50 54 58 62 65 67 68 69 71 72 72 71 71 71 71 70 69 67 65 63 62 59 58 58 59 58 56 54 51 48 44 42
37 37 37 36 36 34 33 33 32 31 31 30 31 31 31 30 30 31 31 31 33 35 37 41 47 51 55 58 60 62 64 67 68 70 71 72 72 72 72 72 72 71 70 70 70 69 68 67 66 65 63 61 58 56 56 55 55 53 51 48 46 43 41
36 37 37 36 35 35 35 34 33 33 32 32 33 34 34 34 34 34 35 37 41 46 53 60 67 71 73 73 73 72 73 74 74 73 73 73 73 73 72 71 71 70 69 67 66 65 63 62 61 59 56 52 49 48 46 45 44 43 40 38 36 34 33
37 37 36 36 35 35 35 35 34 34 34 34 36 37 38 39 41 43 47 51 56 62 68 74 77 78 78 78 78 78 78 78 77 76 76 75 73 71 70 69 67 65 63 61 59 57 55 53 50 46 42 38 34 31 30 28 26 25 23 22 20 19 19
39 39 38 37 38 38 38 38 38 38 38 40 42 44 46 49 53 57 61 65 68 72 76 79 80 79 79 79 80 80 80 79 78 77 76 74 71 68 66 64 62 60 57 54 51 48 44 39 34 29 25 22 19 17 16 15 14 13 13 12 12 12 11
45 43 41 41 43 43 44 45 45 44 45 48 51 53 57 60 63 67 70 73 75 78 81 82 81 79 78 78 78 79 80 79 79 78 77 74 70 67 63 60 56 52 48 42 37 32 27 23 19 17 15 14 13 13 12 12 12 12 12 12 11 12 12
54 52 50 50 51 51 52 53 53 53 55 58 60 61 63 66 69 73 75 77 79 81 83 82 79 77 78 78 78 80 81 81 80 79 76 72 68 64 58 51 43 36 30 25 21 18 16 15 14 14 14 13 13 13 12 12 12 12 12 12 11 12 12
63 61 60 60 61 62 62 61 62 64 66 68 67 66 67 70 73 76 77 78 80 82 82 79 77 78 79 79 80 80 80 78 76 72 68 63 57 49 41 33 27 22 19 18 17 16 16 16 16 15 15 14 13 12 12 11 11 11 10 11 10 10 11
70 69 68 69 70 71 71 72 73 75 76 76 73 71 71 74 77 79 79 78 80 82 81 78 77 77 77 76 75 73 70 67 63 57 51 45 37 30 24 21 19 19 18 18 18 18 17 17 16 16 16 15 13 13 12 11 11 11 11 11 10 10 10
67 68 69 72 73 75 77 80 83 83 82 80 77 75 75 77 79 80 78 77 77 77 75 73 71 71 69 67 64 60 55 49 43 37 31 27 23 20 19 19 19 20 20 20 20 20 19 19 19 18 18 17 16 15 14 13 12 12 12 12 11 11 11
59 60 62 66 69 71 76 81 86 86 84 80 76 75 76 77 77 75 72 70 69 67 64 63 62 59 56 51 45 40 35 30 26 24 22 21 21 21 21 21 21 22 23 23 22 22 21 20 20 19 18 17 15 14 13 12 12 11 11 11 11 11 10
51 51 53 57 59 62 67 73 77 78 75 71 68 68 69 70 70 67 63 60 58 55 53 50 47 42 37 32 28 25 24 22 22 22 22 23 24 24 24 23 24 24 23 23 22 20 20 19 18 17 16 15 14 13 13 12 12 12 12 12 11 11 10
43 42 43 45 48 53 59 63 63 62 60 58 57 58 59 60 58 54 50 45 42 39 37 34 30 26 23 22 23 23 23 24 24 24 26 26 26 26 25 24 23 22 21 20 19 18 18 17 17 16 16 15 15 14 13 13 13 12 12 12 12 11 11